Wetterdaten: Samstag, 07.05.2016
Datum Zeit Temp. Aussen Temp. o. S. +5cm Feuchte Auss BlattFeu 1 Luftdruck Regen Sonnenschein Regendauer Solar Windben Empfang
07.05.2016 00:00 17,3 C 16,7 C 13,9 C 64 % 0 lf 1010,9 hPa 0,0 l/m 0 min 0 min 0 W/m 8,4 km/h (2 Bft) 94,00 %
07.05.2016 00:02 17,3 C 16,1 C 13,9 C 64 % 0 lf 1010,9 hPa 0,0 l/m 0 min 0 min 0 W/m 4,2 km/h (1 Bft) 20,00 %
07.05.2016 00:06 17,2 C 16,1 C 13,9 C 64 % 0 lf 1011,0 hPa 0,0 l/m 0 min 0 min 0 W/m 8,4 km/h (2 Bft) 77,14 %
07.05.2016 00:08 17,2 C 16,1 C 13,3 C 64 % 0 lf 1010,9 hPa 0,0 l/m 0 min 0 min 0 W/m 8,4 km/h (2 Bft) 100,00 %
07.05.2016 00:10 17,1 C 16,1 C 13,9 C 64 % 0 lf 1011,1 hPa 0,0 l/m 0 min 0 min 0 W/m 8,4 km/h (2 Bft) 95,74 %
07.05.2016 00:12 17,1 C 16,1 C 13,9 C 64 % 0 lf 1011,0 hPa 0,0 l/m 0 min 0 min 0 W/m 8,4 km/h (2 Bft) 97,87 %
07.05.2016 00:14 17,0 C 16,1 C 13,3 C 65 % 0 lf 1011,0 hPa 0,0 l/m 0 min 0 min 0 W/m 6,3 km/h (2 Bft) 96,43 %
07.05.2016 00:16 16,9 C 16,1 C 13,3 C 65 % 0 lf 1011,0 hPa 0,0 l/m 0 min 0 min 0 W/m 8,4 km/h (2 Bft) 91,84 %
07.05.2016 00:18 16,9 C 16,1 C 13,3 C 65 % 0 lf 1011,0 hPa 0,0 l/m 0 min 0 min 0 W/m 6,3 km/h (2 Bft) 94,74 %
07.05.2016 00:20 16,8 C 16,1 C 13,3 C 65 % 0 lf 1010,9 hPa 0,0 l/m 0 min 0 min 0 W/m 8,4 km/h (2 Bft) 96,00 %
07.05.2016 00:22 16,8 C 16,1 C 13,3 C 65 % 0 lf 1011,0 hPa 0,0 l/m 0 min 0 min 0 W/m 8,4 km/h (2 Bft) 93,62 %
07.05.2016 00:24 16,8 C 16,1 C 13,3 C 65 % 0 lf 1011,0 hPa 0,0 l/m 0 min 0 min 0 W/m 6,3 km/h (2 Bft) 93,62 %
07.05.2016 00:26 16,7 C 15,6 C 13,3 C 65 % 0 lf 1010,9 hPa 0,0 l/m 0 min 0 min 0 W/m 6,3 km/h (2 Bft) 90,91 %
07.05.2016 00:28 16,7 C 15,6 C 13,3 C 66 % 0 lf 1010,9 hPa 0,0 l/m 0 min 0 min 0 W/m 8,4 km/h (2 Bft) 93,62 %
07.05.2016 00:30 16,6 C 15,6 C 12,8 C 66 % 0 lf 1011,0 hPa 0,0 l/m 0 min 0 min 0 W/m 8,4 km/h (2 Bft) 93,48 %
07.05.2016 00:32 16,6 C 15,6 C 12,8 C 66 % 0 lf 1010,9 hPa 0,0 l/m 0 min 0 min 0 W/m 10,5 km/h (2 Bft) 93,62 %
07.05.2016 00:34 16,6 C 15,6 C 12,8 C 66 % 0 lf 1010,9 hPa 0,0 l/m 0 min 0 min 0 W/m 6,3 km/h (2 Bft) 92,00 %
07.05.2016 00:36 16,5 C 15,0 C 12,8 C 66 % 0 lf 1010,9 hPa 0,0 l/m 0 min 0 min 0 W/m 6,3 km/h (2 Bft) 91,49 %
07.05.2016 00:38 16,4 C 15,0 C 12,8 C 66 % 0 lf 1010,9 hPa 0,0 l/m 0 min 0 min 0 W/m 8,4 km/h (2 Bft) 93,18 %
07.05.2016 00:40 16,4 C 15,6 C 12,8 C 67 % 0 lf 1010,9 hPa 0,0 l/m 0 min 0 min 0 W/m 8,4 km/h (2 Bft) 93,62 %
07.05.2016 00:42 16,3 C 15,6 C 12,8 C 67 % 0 lf 1010,9 hPa 0,0 l/m 0 min 0 min 0 W/m 8,4 km/h (2 Bft) 93,88 %
07.05.2016 00:44 16,3 C 15,6 C 12,8 C 67 % 0 lf 1010,9 hPa 0,0 l/m 0 min 0 min 0 W/m 6,3 km/h (2 Bft) 95,74 %
07.05.2016 00:46 16,2 C 15,6 C 12,8 C 67 % 0 lf 1010,9 hPa 0,0 l/m 0 min 0 min 0 W/m 10,5 km/h (2 Bft) 93,62 %
07.05.2016 00:48 16,2 C 15,6 C 12,8 C 67 % 0 lf 1010,9 hPa 0,0 l/m 0 min 0 min 0 W/m 6,3 km/h (2 Bft) 95,74 %
07.05.2016 00:50 16,2 C 15,0 C 12,8 C 67 % 0 lf 1011,0 hPa 0,0 l/m 0 min 0 min 0 W/m 6,3 km/h (2 Bft) 97,87 %
07.05.2016 00:52 16,1 C 15,6 C 12,8 C 67 % 0 lf 1011,0 hPa 0,0 l/m 0 min 0 min 0 W/m 6,3 km/h (2 Bft) 97,83 %
07.05.2016 00:54 16,1 C 15,0 C 12,8 C 68 % 0 lf 1011,0 hPa 0,0 l/m 0 min 0 min 0 W/m 8,4 km/h (2 Bft) 97,73 %
07.05.2016 00:56 16,0 C 15,0 C 12,8 C 68 % 0 lf 1011,0 hPa 0,0 l/m 0 min 0 min 0 W/m 8,4 km/h (2 Bft) 95,74 %
07.05.2016 00:58 15,9 C 15,0 C 12,2 C 68 % 0 lf 1011,0 hPa 0,0 l/m 0 min 0 min 0 W/m 6,3 km/h (2 Bft) 95,74 %
07.05.2016 01:00 15,9 C 15,0 C 12,2 C 68 % 0 lf 1011,0 hPa 0,0 l/m 0 min 0 min 0 W/m 6,3 km/h (2 Bft) 97,87 %
07.05.2016 01:02 15,9 C 15,0 C 12,2 C 68 % 0 lf 1010,9 hPa 0,0 l/m 0 min 0 min 0 W/m 6,3 km/h (2 Bft) 94,00 %
07.05.2016 01:04 15,8 C 15,0 C 12,2 C 68 % 0 lf 1010,9 hPa 0,0 l/m 0 min 0 min 0 W/m 6,3 km/h (2 Bft) 95,65 %
07.05.2016 01:06 15,8 C 14,4 C 12,2 C 68 % 0 lf 1011,0 hPa 0,0 l/m 0 min 0 min 0 W/m 6,3 km/h (2 Bft) 95,74 %
07.05.2016 01:08 15,8 C 14,4 C 12,2 C 68 % 0 lf 1011,0 hPa 0,0 l/m 0 min 0 min 0 W/m 6,3 km/h (2 Bft) 93,62 %
07.05.2016 01:10 15,7 C 14,4 C 12,2 C 68 % 0 lf 1011,0 hPa 0,0 l/m 0 min 0 min 0 W/m 6,3 km/h (2 Bft) 97,87 %
07.05.2016 01:12 15,7 C 14,4 C 12,2 C 69 % 0 lf 1011,0 hPa 0,0 l/m 0 min 0 min 0 W/m 4,2 km/h (1 Bft) 100,00 %
07.05.2016 01:14 15,7 C 14,4 C 12,2 C 69 % 0 lf 1010,9 hPa 0,0 l/m 0 min 0 min 0 W/m 8,4 km/h (2 Bft) 97,87 %
07.05.2016 01:16 15,6 C 14,4 C 12,2 C 69 % 0 lf 1011,0 hPa 0,0 l/m 0 min 0 min 0 W/m 8,4 km/h (2 Bft) 95,65 %
07.05.2016 01:18 15,6 C 14,4 C 12,2 C 69 % 0 lf 1011,0 hPa 0,0 l/m 0 min 0 min 0 W/m 8,4 km/h (2 Bft) 100,00 %
07.05.2016 01:20 15,5 C 14,4 C 12,2 C 69 % 0 lf 1011,1 hPa 0,0 l/m 0 min 0 min 0 W/m 8,4 km/h (2 Bft) 95,74 %
07.05.2016 01:22 15,4 C 14,4 C 12,2 C 69 % 0 lf 1011,1 hPa 0,0 l/m 0 min 0 min 0 W/m 12,6 km/h (3 Bft) 100,00 %
07.05.2016 01:24 15,4 C 14,4 C 12,2 C 69 % 0 lf 1011,0 hPa 0,0 l/m 0 min 0 min 0 W/m 10,5 km/h (2 Bft) 100,00 %
07.05.2016 01:26 15,3 C 14,4 C 12,2 C 69 % 0 lf 1011,1 hPa 0,0 l/m 0 min 0 min 0 W/m 10,5 km/h (2 Bft) 100,00 %
07.05.2016 01:28 15,3 C 14,4 C 12,2 C 69 % 0 lf 1011,0 hPa 0,0 l/m 0 min 0 min 0 W/m 10,5 km/h (2 Bft) 95,74 %
07.05.2016 01:30 15,3 C 15,0 C 12,2 C 69 % 0 lf 1011,0 hPa 0,0 l/m 0 min 0 min 0 W/m 10,5 km/h (2 Bft) 100,00 %
07.05.2016 01:32 15,2 C 14,4 C 12,2 C 69 % 0 lf 1011,1 hPa 0,0 l/m 0 min 0 min 0 W/m 6,3 km/h (2 Bft) 100,00 %
07.05.2016 01:34 15,2 C 15,0 C 12,2 C 69 % 0 lf 1011,0 hPa 0,0 l/m 0 min 0 min 0 W/m 10,5 km/h (2 Bft) 97,14 %
07.05.2016 01:36 15,1 C 15,0 C 12,2 C 69 % 0 lf 1011,1 hPa 0,0 l/m 0 min 0 min 0 W/m 8,4 km/h (2 Bft) 100,00 %
07.05.2016 01:38 15,1 C 14,4 C 12,2 C 69 % 0 lf 1011,1 hPa 0,0 l/m 0 min 0 min 0 W/m 8,4 km/h (2 Bft) 100,00 %
07.05.2016 01:40 15,1 C 15,0 C 12,2 C 69 % 0 lf 1011,0 hPa 0,0 l/m 0 min 0 min 0 W/m 6,3 km/h (2 Bft) 98,18 %
07.05.2016 01:42 15,1 C 15,0 C 12,2 C 69 % 0 lf 1011,1 hPa 0,0 l/m 0 min 0 min 0 W/m 8,4 km/h (2 Bft) 95,74 %
07.05.2016 01:44 15,0 C 15,0 C 12,2 C 69 % 0 lf 1011,0 hPa 0,0 l/m 0 min 0 min 0 W/m 8,4 km/h (2 Bft) 100,00 %
07.05.2016 01:46 15,0 C 15,0 C 12,2 C 69 % 0 lf 1011,0 hPa 0,0 l/m 0 min 0 min 0 W/m 8,4 km/h (2 Bft) 98,00 %
07.05.2016 01:48 14,9 C 14,4 C 12,2 C 69 % 0 lf 1011,1 hPa 0,0 l/m 0 min 0 min 0 W/m 12,6 km/h (3 Bft) 97,87 %
07.05.2016 01:50 14,9 C 14,4 C 12,2 C 69 % 0 lf 1011,0 hPa 0,0 l/m 0 min 0 min 0 W/m 6,3 km/h (2 Bft) 100,00 %
07.05.2016 01:52 14,9 C 14,4 C 12,2 C 69 % 0 lf 1011,0 hPa 0,0 l/m 0 min 0 min 0 W/m 6,3 km/h (2 Bft) 100,00 %
07.05.2016 01:54 14,9 C 14,4 C 12,2 C 69 % 0 lf 1011,0 hPa 0,0 l/m 0 min 0 min 0 W/m 6,3 km/h (2 Bft) 98,00 %
07.05.2016 01:56 14,9 C 14,4 C 12,2 C 69 % 0 lf 1011,0 hPa 0,0 l/m 0 min 0 min 0 W/m 6,3 km/h (2 Bft) 97,87 %
07.05.2016 01:58 14,9 C 14,4 C 11,7 C 69 % 0 lf 1011,1 hPa 0,0 l/m 0 min 0 min 0 W/m 6,3 km/h (2 Bft) 97,87 %
07.05.2016 02:00 14,8 C 14,4 C 11,7 C 69 % 0 lf 1011,0 hPa 0,0 l/m 0 min 0 min 0 W/m 8,4 km/h (2 Bft) 95,74 %
07.05.2016 02:02 14,8 C 14,4 C 11,7 C 69 % 0 lf 1011,0 hPa 0,0 l/m 0 min 0 min 0 W/m 6,3 km/h (2 Bft) 93,88 %
07.05.2016 02:04 14,8 C 13,9 C 11,7 C 69 % 0 lf 1011,0 hPa 0,0 l/m 0 min 0 min 0 W/m 6,3 km/h (2 Bft) 97,87 %
07.05.2016 02:06 14,8 C 13,9 C 11,7 C 69 % 0 lf 1011,0 hPa 0,0 l/m 0 min 0 min 0 W/m 8,4 km/h (2 Bft) 93,62 %
07.05.2016 02:08 14,8 C 13,9 C 11,7 C 69 % 0 lf 1011,0 hPa 0,0 l/m 0 min 0 min 0 W/m 8,4 km/h (2 Bft) 98,00 %
07.05.2016 02:10 14,7 C 13,9 C 11,7 C 69 % 0 lf 1011,0 hPa 0,0 l/m 0 min 0 min 0 W/m 8,4 km/h (2 Bft) 97,37 %
07.05.2016 02:12 14,7 C 13,9 C 11,7 C 69 % 0 lf 1011,1 hPa 0,0 l/m 0 min 0 min 0 W/m 8,4 km/h (2 Bft) 94,00 %
07.05.2016 02:14 14,7 C 13,9 C 11,7 C 69 % 0 lf 1011,1 hPa 0,0 l/m 0 min 0 min 0 W/m 6,3 km/h (2 Bft) 97,83 %
07.05.2016 02:16 14,7 C 13,9 C 11,7 C 70 % 0 lf 1011,0 hPa 0,0 l/m 0 min 0 min 0 W/m 8,4 km/h (2 Bft) 93,62 %
07.05.2016 02:18 14,6 C 13,9 C 11,7 C 70 % 0 lf 1010,9 hPa 0,0 l/m 0 min 0 min 0 W/m 6,3 km/h (2 Bft) 95,74 %
07.05.2016 02:20 14,6 C 13,9 C 11,7 C 70 % 0 lf 1010,9 hPa 0,0 l/m 0 min 0 min 0 W/m 6,3 km/h (2 Bft) 95,74 %
07.05.2016 02:22 14,5 C 13,9 C 11,7 C 70 % 0 lf 1011,0 hPa 0,0 l/m 0 min 0 min 0 W/m 4,2 km/h (1 Bft) 92,00 %
07.05.2016 02:24 14,5 C 13,9 C 11,1 C 70 % 0 lf 1010,9 hPa 0,0 l/m 0 min 0 min 0 W/m 8,4 km/h (2 Bft) 100,00 %
07.05.2016 02:26 14,4 C 13,9 C 11,1 C 70 % 0 lf 1011,0 hPa 0,0 l/m 0 min 0 min 0 W/m 4,2 km/h (1 Bft) 92,73 %
07.05.2016 02:28 14,4 C 13,9 C 11,1 C 70 % 0 lf 1011,0 hPa 0,0 l/m 0 min 0 min 0 W/m 6,3 km/h (2 Bft) 95,74 %
07.05.2016 02:30 14,3 C 13,3 C 11,1 C 70 % 0 lf 1010,9 hPa 0,0 l/m 0 min 0 min 0 W/m 4,2 km/h (1 Bft) 96,00 %
07.05.2016 02:32 14,3 C 13,3 C 11,1 C 70 % 0 lf 1010,9 hPa 0,0 l/m 0 min 0 min 0 W/m 6,3 km/h (2 Bft) 95,74 %
07.05.2016 02:34 14,2 C 13,9 C 11,1 C 70 % 0 lf 1010,9 hPa 0,0 l/m 0 min 0 min 0 W/m 6,3 km/h (2 Bft) 93,62 %
07.05.2016 02:36 14,2 C 13,3 C 11,1 C 71 % 0 lf 1010,9 hPa 0,0 l/m 0 min 0 min 0 W/m 8,4 km/h (2 Bft) 97,14 %
07.05.2016 02:38 14,2 C 13,9 C 11,1 C 71 % 0 lf 1010,8 hPa 0,0 l/m 0 min 0 min 0 W/m 8,4 km/h (2 Bft) 93,62 %
07.05.2016 02:40 14,2 C 13,9 C 11,7 C 71 % 0 lf 1010,8 hPa 0,0 l/m 0 min 0 min 0 W/m 6,3 km/h (2 Bft) 93,48 %
07.05.2016 02:42 14,2 C 13,9 C 11,7 C 71 % 0 lf 1010,9 hPa 0,0 l/m 0 min 0 min 0 W/m 6,3 km/h (2 Bft) 95,74 %
07.05.2016 02:44 14,2 C 13,9 C 11,7 C 71 % 0 lf 1010,9 hPa 0,0 l/m 0 min 0 min 0 W/m 6,3 km/h (2 Bft) 94,64 %
07.05.2016 02:46 14,1 C 13,3 C 11,7 C 71 % 0 lf 1010,8 hPa 0,0 l/m 0 min 0 min 0 W/m 4,2 km/h (1 Bft) 93,62 %
07.05.2016 02:48 14,1 C 13,3 C 11,1 C 71 % 0 lf 1010,8 hPa 0,0 l/m 0 min 0 min 0 W/m 4,2 km/h (1 Bft) 91,84 %
07.05.2016 02:50 14,1 C 13,3 C 11,1 C 71 % 0 lf 1010,8 hPa 0,0 l/m 0 min 0 min 0 W/m 4,2 km/h (1 Bft) 97,56 %
07.05.2016 02:52 14,0 C 13,3 C 11,1 C 72 % 0 lf 1010,8 hPa 0,0 l/m 0 min 0 min 0 W/m 4,2 km/h (1 Bft) 95,74 %
07.05.2016 02:54 13,9 C 12,8 C 11,1 C 72 % 0 lf 1010,8 hPa 0,0 l/m 0 min 0 min 0 W/m 2,1 km/h (1 Bft) 98,00 %
07.05.2016 02:56 13,9 C 12,8 C 10,6 C 72 % 0 lf 1010,7 hPa 0,0 l/m 0 min 0 min 0 W/m 4,2 km/h (1 Bft) 95,74 %
07.05.2016 02:58 13,9 C 12,8 C 10,6 C 72 % 0 lf 1010,8 hPa 0,0 l/m 0 min 0 min 0 W/m 2,1 km/h (1 Bft) 97,87 %
07.05.2016 03:00 13,8 C 12,8 C 10,6 C 72 % 0 lf 1010,8 hPa 0,0 l/m 0 min 0 min 0 W/m 4,2 km/h (1 Bft) 100,00 %
07.05.2016 03:02 13,8 C 12,8 C 10,6 C 72 % 0 lf 1010,7 hPa 0,0 l/m 0 min 0 min 0 W/m 6,3 km/h (2 Bft) 98,00 %
07.05.2016 03:04 13,8 C 12,8 C 10,6 C 72 % 0 lf 1010,7 hPa 0,0 l/m 0 min 0 min 0 W/m 6,3 km/h (2 Bft) 100,00 %
07.05.2016 03:06 13,8 C 12,8 C 10,6 C 72 % 0 lf 1010,7 hPa 0,0 l/m 0 min 0 min 0 W/m 4,2 km/h (1 Bft) 97,87 %
07.05.2016 03:08 13,7 C 12,8 C 10,6 C 72 % 0 lf 1010,8 hPa 0,0 l/m 0 min 0 min 0 W/m 6,3 km/h (2 Bft) 100,00 %
07.05.2016 03:10 13,7 C 12,8 C 10,6 C 72 % 0 lf 1010,7 hPa 0,0 l/m 0 min 0 min 0 W/m 6,3 km/h (2 Bft) 96,43 %
07.05.2016 03:12 13,6 C 12,8 C 10,6 C 72 % 0 lf 1010,7 hPa 0,0 l/m 0 min 0 min 0 W/m 6,3 km/h (2 Bft) 100,00 %
07.05.2016 03:14 13,6 C 12,8 C 10,6 C 72 % 0 lf 1010,7 hPa 0,0 l/m 0 min 0 min 0 W/m 6,3 km/h (2 Bft) 100,00 %
07.05.2016 03:16 13,5 C 12,8 C 10,6 C 73 % 0 lf 1010,8 hPa 0,0 l/m 0 min 0 min 0 W/m 6,3 km/h (2 Bft) 94,74 %
07.05.2016 03:18 13,5 C 12,8 C 10,6 C 73 % 0 lf 1010,7 hPa 0,0 l/m 0 min 0 min 0 W/m 6,3 km/h (2 Bft) 97,83 %
07.05.2016 03:20 13,4 C 12,8 C 10,6 C 73 % 0 lf 1010,8 hPa 0,0 l/m 0 min 0 min 0 W/m 6,3 km/h (2 Bft) 98,21 %
07.05.2016 03:22 13,4 C 12,8 C 10,6 C 73 % 0 lf 1010,7 hPa 0,0 l/m 0 min 0 min 0 W/m 4,2 km/h (1 Bft) 97,37 %
07.05.2016 03:24 13,4 C 12,8 C 10,0 C 73 % 0 lf 1010,7 hPa 0,0 l/m 0 min 0 min 0 W/m 6,3 km/h (2 Bft) 95,74 %
07.05.2016 03:26 13,3 C 12,2 C 10,0 C 73 % 0 lf 1010,7 hPa 0,0 l/m 0 min 0 min 0 W/m 6,3 km/h (2 Bft) 96,36 %
07.05.2016 03:28 13,3 C 12,2 C 10,0 C 73 % 0 lf 1010,7 hPa 0,0 l/m 0 min 0 min 0 W/m 6,3 km/h (2 Bft) 95,74 %
07.05.2016 03:30 13,3 C 12,8 C 10,6 C 73 % 0 lf 1010,7 hPa 0,0 l/m 0 min 0 min 0 W/m 8,4 km/h (2 Bft) 93,62 %
07.05.2016 03:32 13,2 C 12,8 C 10,6 C 73 % 0 lf 1010,7 hPa 0,0 l/m 0 min 0 min 0 W/m 6,3 km/h (2 Bft) 93,62 %
07.05.2016 03:34 13,2 C 12,8 C 10,6 C 73 % 0 lf 1010,7 hPa 0,0 l/m 0 min 0 min 0 W/m 8,4 km/h (2 Bft) 93,48 %
07.05.2016 03:36 13,2 C 13,3 C 11,1 C 73 % 0 lf 1010,7 hPa 0,0 l/m 0 min 0 min 0 W/m 8,4 km/h (2 Bft) 95,74 %
07.05.2016 03:38 13,1 C 13,3 C 11,1 C 73 % 0 lf 1010,6 hPa 0,0 l/m 0 min 0 min 0 W/m 6,3 km/h (2 Bft) 95,74 %
07.05.2016 03:40 13,1 C 13,3 C 11,1 C 73 % 0 lf 1010,6 hPa 0,0 l/m 0 min 0 min 0 W/m 8,4 km/h (2 Bft) 97,37 %
07.05.2016 03:42 13,1 C 13,3 C 11,1 C 74 % 0 lf 1010,7 hPa 0,0 l/m 0 min 0 min 0 W/m 6,3 km/h (2 Bft) 95,74 %
07.05.2016 03:44 13,1 C 12,8 C 11,1 C 74 % 0 lf 1010,7 hPa 0,0 l/m 0 min 0 min 0 W/m 6,3 km/h (2 Bft) 94,34 %
07.05.2016 03:46 13,1 C 12,8 C 10,6 C 74 % 0 lf 1010,6 hPa 0,0 l/m 0 min 0 min 0 W/m 6,3 km/h (2 Bft) 93,48 %
07.05.2016 03:48 13,1 C 12,8 C 10,6 C 74 % 0 lf 1010,6 hPa 0,0 l/m 0 min 0 min 0 W/m 4,2 km/h (1 Bft) 91,49 %
07.05.2016 03:50 13,1 C 12,8 C 10,6 C 74 % 0 lf 1010,6 hPa 0,0 l/m 0 min 0 min 0 W/m 6,3 km/h (2 Bft) 95,74 %
07.05.2016 03:52 13,1 C 12,8 C 10,6 C 74 % 0 lf 1010,6 hPa 0,0 l/m 0 min 0 min 0 W/m 6,3 km/h (2 Bft) 96,00 %
07.05.2016 03:54 13,0 C 12,8 C 10,6 C 74 % 0 lf 1010,6 hPa 0,0 l/m 0 min 0 min 0 W/m 4,2 km/h (1 Bft) 93,62 %
07.05.2016 03:56 13,0 C 12,8 C 10,6 C 74 % 0 lf 1010,6 hPa 0,0 l/m 0 min 0 min 0 W/m 6,3 km/h (2 Bft) 87,23 %
07.05.2016 03:58 13,0 C 12,8 C 10,6 C 74 % 0 lf 1010,6 hPa 0,0 l/m 0 min 0 min 0 W/m 6,3 km/h (2 Bft) 95,65 %
07.05.2016 04:00 13,0 C 12,8 C 10,6 C 74 % 0 lf 1010,7 hPa 0,0 l/m 0 min 0 min 0 W/m 6,3 km/h (2 Bft) 93,62 %
07.05.2016 04:05 12,9 C 12,2 C 10,0 C 74 % 0 lf 1010,6 hPa 0,0 l/m 0 min 0 min 0 W/m 6,3 km/h (2 Bft) 94,34 %
07.05.2016 04:06 12,9 C 12,2 C 10,0 C 74 % 0 lf 1010,6 hPa 0,0 l/m 0 min 0 min 0 W/m 6,3 km/h (2 Bft) 100,00 %
07.05.2016 04:08 12,9 C 12,2 C 10,0 C 74 % 0 lf 1010,6 hPa 0,0 l/m 0 min 0 min 0 W/m 6,3 km/h (2 Bft) 95,74 %
07.05.2016 04:10 12,9 C 12,2 C 10,0 C 74 % 0 lf 1010,6 hPa 0,0 l/m 0 min 0 min 0 W/m 6,3 km/h (2 Bft) 93,62 %
07.05.2016 04:12 12,9 C 11,7 C 10,0 C 73 % 0 lf 1010,6 hPa 0,0 l/m 0 min 0 min 0 W/m 6,3 km/h (2 Bft) 97,83 %
07.05.2016 04:14 12,9 C 11,7 C 10,0 C 73 % 0 lf 1010,6 hPa 0,0 l/m 0 min 0 min 0 W/m 6,3 km/h (2 Bft) 95,74 %
07.05.2016 04:16 12,8 C 11,7 C 10,0 C 74 % 0 lf 1010,7 hPa 0,0 l/m 0 min 0 min 0 W/m 6,3 km/h (2 Bft) 95,74 %
07.05.2016 04:18 12,8 C 11,7 C 10,0 C 74 % 0 lf 1010,6 hPa 0,0 l/m 0 min 0 min 0 W/m 6,3 km/h (2 Bft) 95,74 %
07.05.2016 04:20 12,8 C 12,2 C 9,4 C 74 % 0 lf 1010,7 hPa 0,0 l/m 0 min 0 min 0 W/m 4,2 km/h (1 Bft) 95,74 %
07.05.2016 04:22 12,8 C 12,2 C 9,4 C 74 % 0 lf 1010,6 hPa 0,0 l/m 0 min 0 min 0 W/m 4,2 km/h (1 Bft) 91,49 %
07.05.2016 04:24 12,7 C 11,7 C 9,4 C 74 % 0 lf 1010,6 hPa 0,0 l/m 0 min 0 min 0 W/m 4,2 km/h (1 Bft) 91,30 %
07.05.2016 04:26 12,7 C 11,7 C 9,4 C 74 % 0 lf 1010,7 hPa 0,0 l/m 0 min 0 min 0 W/m 4,2 km/h (1 Bft) 95,74 %
07.05.2016 04:28 12,7 C 11,7 C 9,4 C 74 % 0 lf 1010,7 hPa 0,0 l/m 0 min 0 min 0 W/m 2,1 km/h (1 Bft) 93,62 %
07.05.2016 04:30 12,6 C 11,7 C 9,4 C 74 % 0 lf 1010,6 hPa 0,0 l/m 0 min 0 min 0 W/m 2,1 km/h (1 Bft) 95,74 %
07.05.2016 04:32 12,6 C 11,1 C 9,4 C 74 % 0 lf 1010,6 hPa 0,0 l/m 0 min 0 min 0 W/m 2,1 km/h (1 Bft) 91,49 %
07.05.2016 04:34 12,6 C 11,1 C 9,4 C 74 % 0 lf 1010,6 hPa 0,0 l/m 0 min 0 min 0 W/m 4,2 km/h (1 Bft) 95,74 %
07.05.2016 04:36 12,5 C 11,1 C 9,4 C 74 % 0 lf 1010,6 hPa 0,0 l/m 0 min 0 min 0 W/m 2,1 km/h (1 Bft) 93,48 %
07.05.2016 04:38 12,5 C 11,1 C 9,4 C 74 % 0 lf 1010,6 hPa 0,0 l/m 0 min 0 min 0 W/m 2,1 km/h (1 Bft) 97,87 %
07.05.2016 04:40 12,4 C 11,1 C 9,4 C 74 % 0 lf 1010,6 hPa 0,0 l/m 0 min 0 min 0 W/m 4,2 km/h (1 Bft) 93,62 %
07.05.2016 04:42 12,4 C 11,1 C 9,4 C 74 % 0 lf 1010,6 hPa 0,0 l/m 0 min 0 min 0 W/m 4,2 km/h (1 Bft) 93,62 %
07.05.2016 04:44 12,4 C 11,1 C 8,9 C 74 % 0 lf 1010,7 hPa 0,0 l/m 0 min 0 min 0 W/m 6,3 km/h (2 Bft) 95,74 %
07.05.2016 04:46 12,3 C 11,1 C 8,9 C 75 % 0 lf 1010,7 hPa 0,0 l/m 0 min 0 min 0 W/m 6,3 km/h (2 Bft) 100,00 %
07.05.2016 04:48 12,3 C 11,1 C 9,4 C 75 % 0 lf 1010,6 hPa 0,0 l/m 0 min 0 min 0 W/m 4,2 km/h (1 Bft) 100,00 %
07.05.2016 04:50 12,2 C 11,7 C 9,4 C 75 % 0 lf 1010,6 hPa 0,0 l/m 0 min 0 min 0 W/m 4,2 km/h (1 Bft) 95,74 %
07.05.2016 04:52 12,2 C 11,7 C 9,4 C 75 % 0 lf 1010,6 hPa 0,0 l/m 0 min 0 min 0 W/m 4,2 km/h (1 Bft) 97,87 %
07.05.2016 04:54 12,2 C 11,7 C 9,4 C 75 % 0 lf 1010,5 hPa 0,0 l/m 0 min 0 min 0 W/m 4,2 km/h (1 Bft) 100,00 %
07.05.2016 04:56 12,1 C 11,7 C 9,4 C 75 % 0 lf 1010,6 hPa 0,0 l/m 0 min 0 min 0 W/m 6,3 km/h (2 Bft) 95,74 %
07.05.2016 04:58 12,1 C 11,7 C 9,4 C 76 % 0 lf 1010,5 hPa 0,0 l/m 0 min 0 min 0 W/m 4,2 km/h (1 Bft) 97,83 %
07.05.2016 05:00 12,1 C 11,7 C 9,4 C 76 % 0 lf 1010,5 hPa 0,0 l/m 0 min 0 min 0 W/m 4,2 km/h (1 Bft) 97,87 %
07.05.2016 05:02 12,0 C 11,7 C 8,9 C 76 % 0 lf 1010,5 hPa 0,0 l/m 0 min 0 min 0 W/m 6,3 km/h (2 Bft) 93,62 %
07.05.2016 05:04 12,0 C 11,7 C 8,9 C 76 % 0 lf 1010,5 hPa 0,0 l/m 0 min 0 min 0 W/m 2,1 km/h (1 Bft) 95,74 %
07.05.2016 05:06 11,9 C 11,7 C 8,9 C 76 % 0 lf 1010,5 hPa 0,0 l/m 0 min 0 min 0 W/m 6,3 km/h (2 Bft) 95,74 %
07.05.2016 05:08 11,9 C 11,1 C 8,9 C 76 % 0 lf 1010,5 hPa 0,0 l/m 0 min 0 min 0 W/m 6,3 km/h (2 Bft) 97,87 %
07.05.2016 05:10 11,9 C 11,1 C 8,9 C 76 % 0 lf 1010,5 hPa 0,0 l/m 0 min 0 min 0 W/m 4,2 km/h (1 Bft) 95,65 %
07.05.2016 05:12 11,8 C 11,1 C 8,9 C 76 % 0 lf 1010,5 hPa 0,0 l/m 0 min 0 min 0 W/m 4,2 km/h (1 Bft) 97,87 %
07.05.2016 05:14 11,8 C 11,7 C 8,9 C 76 % 0 lf 1010,5 hPa 0,0 l/m 0 min 0 min 0 W/m 6,3 km/h (2 Bft) 91,49 %
07.05.2016 05:16 11,8 C 11,7 C 8,9 C 77 % 0 lf 1010,5 hPa 0,0 l/m 0 min 0 min 0 W/m 4,2 km/h (1 Bft) 97,87 %
07.05.2016 05:18 11,8 C 11,1 C 8,9 C 77 % 0 lf 1010,5 hPa 0,0 l/m 0 min 0 min 0 W/m 8,4 km/h (2 Bft) 93,62 %
07.05.2016 05:20 11,7 C 11,1 C 8,9 C 77 % 0 lf 1010,5 hPa 0,0 l/m 0 min 0 min 0 W/m 8,4 km/h (2 Bft) 95,74 %
07.05.2016 05:22 11,7 C 11,1 C 8,9 C 77 % 0 lf 1010,5 hPa 0,0 l/m 0 min 0 min 0 W/m 6,3 km/h (2 Bft) 95,65 %
07.05.2016 05:24 11,7 C 11,1 C 8,9 C 77 % 0 lf 1010,5 hPa 0,0 l/m 0 min 0 min 0 W/m 8,4 km/h (2 Bft) 93,62 %
07.05.2016 05:26 11,7 C 11,1 C 8,9 C 77 % 0 lf 1010,4 hPa 0,0 l/m 0 min 0 min 0 W/m 8,4 km/h (2 Bft) 95,74 %
07.05.2016 05:28 11,7 C 11,1 C 8,9 C 77 % 0 lf 1010,4 hPa 0,0 l/m 0 min 0 min 0 W/m 8,4 km/h (2 Bft) 97,87 %
07.05.2016 05:30 11,6 C 11,1 C 8,9 C 77 % 0 lf 1010,4 hPa 0,0 l/m 0 min 0 min 0 W/m 8,4 km/h (2 Bft) 93,62 %
07.05.2016 05:32 11,6 C 11,1 C 8,9 C 77 % 0 lf 1010,3 hPa 0,0 l/m 0 min 0 min 0 W/m 6,3 km/h (2 Bft) 97,87 %
07.05.2016 05:34 11,6 C 11,1 C 8,9 C 77 % 0 lf 1010,4 hPa 0,0 l/m 0 min 0 min 0 W/m 6,3 km/h (2 Bft) 97,83 %
07.05.2016 05:36 11,6 C 11,1 C 8,9 C 78 % 0 lf 1010,3 hPa 0,0 l/m 0 min 0 min 0 W/m 8,4 km/h (2 Bft) 91,49 %
07.05.2016 05:38 11,5 C 11,1 C 8,9 C 78 % 0 lf 1010,4 hPa 0,0 l/m 0 min 0 min 0 W/m 6,3 km/h (2 Bft) 97,87 %
07.05.2016 05:40 11,5 C 11,1 C 8,9 C 78 % 0 lf 1010,3 hPa 0,0 l/m 0 min 0 min 0 W/m 6,3 km/h (2 Bft) 97,87 %
07.05.2016 05:42 11,4 C 11,1 C 8,9 C 78 % 0 lf 1010,3 hPa 0,0 l/m 0 min 0 min 0 W/m 6,3 km/h (2 Bft) 100,00 %
07.05.2016 05:44 11,4 C 11,7 C 8,9 C 78 % 0 lf 1010,3 hPa 0,0 l/m 0 min 0 min 0 W/m 6,3 km/h (2 Bft) 100,00 %
07.05.2016 05:46 11,4 C 11,1 C 8,9 C 78 % 0 lf 1010,4 hPa 0,0 l/m 0 min 0 min 3 W/m 6,3 km/h (2 Bft) 100,00 %
07.05.2016 05:48 11,4 C 11,1 C 8,9 C 78 % 0 lf 1010,4 hPa 0,0 l/m 0 min 0 min 5 W/m 4,2 km/h (1 Bft) 97,87 %
07.05.2016 05:50 11,4 C 11,7 C 8,9 C 79 % 0 lf 1010,4 hPa 0,0 l/m 0 min 0 min 5 W/m 6,3 km/h (2 Bft) 97,87 %
07.05.2016 05:52 11,4 C 11,7 C 8,9 C 79 % 0 lf 1010,4 hPa 0,0 l/m 0 min 0 min 6 W/m 6,3 km/h (2 Bft) 100,00 %
07.05.2016 05:54 11,4 C 11,7 C 8,9 C 79 % 0 lf 1010,4 hPa 0,0 l/m 0 min 0 min 7 W/m 6,3 km/h (2 Bft) 95,74 %
07.05.2016 05:56 11,4 C 11,7 C 8,9 C 79 % 0 lf 1010,3 hPa 0,0 l/m 0 min 0 min 7 W/m 8,4 km/h (2 Bft) 97,87 %
07.05.2016 05:58 11,4 C 11,7 C 9,4 C 79 % 0 lf 1010,5 hPa 0,0 l/m 0 min 0 min 8 W/m 8,4 km/h (2 Bft) 100,00 %
07.05.2016 06:00 11,3 C 11,7 C 9,4 C 79 % 0 lf 1010,5 hPa 0,0 l/m 0 min 0 min 9 W/m 8,4 km/h (2 Bft) 97,87 %
07.05.2016 06:02 11,3 C 11,7 C 9,4 C 79 % 0 lf 1010,5 hPa 0,0 l/m 0 min 0 min 9 W/m 6,3 km/h (2 Bft) 100,00 %
07.05.2016 06:04 11,3 C 11,7 C 9,4 C 79 % 0 lf 1010,5 hPa 0,0 l/m 0 min 0 min 11 W/m 8,4 km/h (2 Bft) 95,83 %
07.05.2016 06:06 11,3 C 11,7 C 9,4 C 79 % 0 lf 1010,5 hPa 0,0 l/m 0 min 0 min 11 W/m 8,4 km/h (2 Bft) 95,74 %
07.05.2016 06:08 11,3 C 11,7 C 9,4 C 79 % 0 lf 1010,5 hPa 0,0 l/m 0 min 0 min 12 W/m 10,5 km/h (2 Bft) 100,00 %
07.05.2016 06:10 11,3 C 11,7 C 9,4 C 79 % 0 lf 1010,5 hPa 0,0 l/m 0 min 0 min 14 W/m 8,4 km/h (2 Bft) 97,87 %
07.05.2016 06:12 11,3 C 11,7 C 9,4 C 80 % 0 lf 1010,5 hPa 0,0 l/m 0 min 0 min 15 W/m 8,4 km/h (2 Bft) 91,49 %
07.05.2016 06:14 11,3 C 11,7 C 9,4 C 80 % 0 lf 1010,5 hPa 0,0 l/m 0 min 0 min 17 W/m 10,5 km/h (2 Bft) 95,74 %
07.05.2016 06:16 11,3 C 11,7 C 9,4 C 80 % 0 lf 1010,4 hPa 0,0 l/m 0 min 0 min 18 W/m 10,5 km/h (2 Bft) 93,62 %
07.05.2016 06:18 11,3 C 11,7 C 9,4 C 80 % 0 lf 1010,5 hPa 0,0 l/m 2 min 0 min 20 W/m 10,5 km/h (2 Bft) 95,74 %
07.05.2016 06:20 11,3 C 11,7 C 9,4 C 80 % 0 lf 1010,5 hPa 0,0 l/m 0 min 0 min 22 W/m 10,5 km/h (2 Bft) 95,65 %
07.05.2016 06:22 11,3 C 11,7 C 9,4 C 80 % 0 lf 1010,5 hPa 0,0 l/m 0 min 0 min 24 W/m 10,5 km/h (2 Bft) 95,74 %
07.05.2016 06:24 11,3 C 11,7 C 9,4 C 80 % 0 lf 1010,5 hPa 0,0 l/m 2 min 0 min 27 W/m 10,5 km/h (2 Bft) 93,62 %
07.05.2016 06:26 11,3 C 11,7 C 9,4 C 80 % 0 lf 1010,5 hPa 0,0 l/m 0 min 0 min 27 W/m 10,5 km/h (2 Bft) 91,49 %
07.05.2016 06:28 11,3 C 11,7 C 9,4 C 80 % 0 lf 1010,4 hPa 0,0 l/m 0 min 0 min 28 W/m 10,5 km/h (2 Bft) 93,62 %
07.05.2016 06:30 11,3 C 11,7 C 10,0 C 80 % 0 lf 1010,5 hPa 0,0 l/m 2 min 0 min 35 W/m 8,4 km/h (2 Bft) 95,74 %
07.05.2016 06:32 11,3 C 11,7 C 10,0 C 80 % 0 lf 1010,4 hPa 0,0 l/m 2 min 0 min 37 W/m 8,4 km/h (2 Bft) 95,65 %
07.05.2016 06:34 11,3 C 11,7 C 10,0 C 80 % 0 lf 1010,4 hPa 0,0 l/m 0 min 0 min 34 W/m 10,5 km/h (2 Bft) 95,74 %
07.05.2016 06:36 11,4 C 11,7 C 10,0 C 80 % 0 lf 1010,5 hPa 0,0 l/m 0 min 0 min 40 W/m 8,4 km/h (2 Bft) 95,74 %
07.05.2016 06:38 11,4 C 12,2 C 10,0 C 80 % 0 lf 1010,4 hPa 0,0 l/m 2 min 0 min 49 W/m 6,3 km/h (2 Bft) 95,74 %
07.05.2016 06:40 11,4 C 12,2 C 10,0 C 80 % 0 lf 1010,5 hPa 0,0 l/m 2 min 0 min 53 W/m 6,3 km/h (2 Bft) 95,74 %
07.05.2016 06:42 11,4 C 12,2 C 10,0 C 80 % 0 lf 1010,5 hPa 0,0 l/m 2 min 0 min 57 W/m 10,5 km/h (2 Bft) 89,36 %
07.05.2016 06:44 11,4 C 12,2 C 10,0 C 80 % 0 lf 1010,5 hPa 0,0 l/m 2 min 0 min 63 W/m 8,4 km/h (2 Bft) 91,30 %
07.05.2016 06:46 11,4 C 12,2 C 10,0 C 80 % 0 lf 1010,5 hPa 0,0 l/m 2 min 0 min 67 W/m 8,4 km/h (2 Bft) 95,74 %
07.05.2016 06:48 11,4 C 12,2 C 10,0 C 80 % 0 lf 1010,5 hPa 0,0 l/m 2 min 0 min 71 W/m 10,5 km/h (2 Bft) 97,87 %
07.05.2016 06:50 11,5 C 12,2 C 10,0 C 80 % 0 lf 1010,5 hPa 0,0 l/m 2 min 0 min 76 W/m 8,4 km/h (2 Bft) 97,87 %
07.05.2016 06:52 11,5 C 12,2 C 10,0 C 80 % 0 lf 1010,5 hPa 0,0 l/m 2 min 0 min 82 W/m 10,5 km/h (2 Bft) 97,87 %
07.05.2016 06:54 11,6 C 12,2 C 10,0 C 80 % 0 lf 1010,5 hPa 0,0 l/m 2 min 0 min 87 W/m 10,5 km/h (2 Bft) 97,87 %
07.05.2016 06:56 11,6 C 12,2 C 10,6 C 80 % 0 lf 1010,6 hPa 0,0 l/m 2 min 0 min 92 W/m 10,5 km/h (2 Bft) 93,48 %
07.05.2016 06:58 11,6 C 12,2 C 10,6 C 80 % 0 lf 1010,5 hPa 0,0 l/m 2 min 0 min 97 W/m 10,5 km/h (2 Bft) 97,87 %
07.05.2016 07:00 11,6 C 12,8 C 10,6 C 80 % 0 lf 1010,5 hPa 0,0 l/m 2 min 0 min 103 W/m 10,5 km/h (2 Bft) 91,49 %
07.05.2016 07:02 11,7 C 12,2 C 10,6 C 80 % 0 lf 1010,5 hPa 0,0 l/m 2 min 0 min 109 W/m 10,5 km/h (2 Bft) 100,00 %
07.05.2016 07:04 11,7 C 12,2 C 10,6 C 80 % 0 lf 1010,5 hPa 0,0 l/m 2 min 0 min 114 W/m 10,5 km/h (2 Bft) 97,87 %
07.05.2016 07:06 11,7 C 12,2 C 10,6 C 80 % 0 lf 1010,5 hPa 0,0 l/m 2 min 0 min 121 W/m 8,4 km/h (2 Bft) 97,87 %
07.05.2016 07:08 11,7 C 12,2 C 10,6 C 80 % 0 lf 1010,5 hPa 0,0 l/m 2 min 0 min 127 W/m 10,5 km/h (2 Bft) 97,83 %
07.05.2016 07:10 11,8 C 12,2 C 10,6 C 80 % 0 lf 1010,5 hPa 0,0 l/m 2 min 0 min 133 W/m 10,5 km/h (2 Bft) 100,00 %
07.05.2016 07:12 11,8 C 12,8 C 10,6 C 80 % 0 lf 1010,6 hPa 0,0 l/m 2 min 0 min 139 W/m 8,4 km/h (2 Bft) 100,00 %
07.05.2016 07:14 11,8 C 12,8 C 10,6 C 80 % 0 lf 1010,6 hPa 0,0 l/m 2 min 0 min 145 W/m 10,5 km/h (2 Bft) 100,00 %
07.05.2016 07:16 11,8 C 12,8 C 10,6 C 80 % 0 lf 1010,6 hPa 0,0 l/m 2 min 0 min 151 W/m 6,3 km/h (2 Bft) 95,74 %
07.05.2016 07:18 11,8 C 12,8 C 10,6 C 80 % 0 lf 1010,6 hPa 0,0 l/m 2 min 0 min 157 W/m 6,3 km/h (2 Bft) 97,87 %
07.05.2016 07:20 11,9 C 12,8 C 10,6 C 80 % 0 lf 1010,6 hPa 0,0 l/m 2 min 0 min 165 W/m 8,4 km/h (2 Bft) 95,65 %
07.05.2016 07:22 11,9 C 12,8 C 10,6 C 80 % 0 lf 1010,6 hPa 0,0 l/m 2 min 0 min 170 W/m 10,5 km/h (2 Bft) 95,74 %
07.05.2016 07:24 11,9 C 12,8 C 10,6 C 80 % 0 lf 1010,6 hPa 0,0 l/m 2 min 0 min 177 W/m 8,4 km/h (2 Bft) 95,74 %
07.05.2016 07:26 11,9 C 12,8 C 10,6 C 80 % 0 lf 1010,6 hPa 0,0 l/m 2 min 0 min 183 W/m 6,3 km/h (2 Bft) 97,87 %
07.05.2016 07:28 12,0 C 13,3 C 11,1 C 80 % 0 lf 1010,6 hPa 0,0 l/m 2 min 0 min 189 W/m 8,4 km/h (2 Bft) 95,74 %
07.05.2016 07:30 12,0 C 13,3 C 11,1 C 80 % 0 lf 1010,6 hPa 0,0 l/m 2 min 0 min 194 W/m 10,5 km/h (2 Bft) 93,48 %
07.05.2016 07:32 12,1 C 13,3 C 11,1 C 80 % 0 lf 1010,6 hPa 0,0 l/m 2 min 0 min 202 W/m 8,4 km/h (2 Bft) 95,74 %
07.05.2016 07:34 12,1 C 13,3 C 11,1 C 80 % 0 lf 1010,6 hPa 0,0 l/m 2 min 0 min 206 W/m 12,6 km/h (3 Bft) 93,62 %
07.05.2016 07:36 12,2 C 13,9 C 11,1 C 80 % 0 lf 1010,7 hPa 0,0 l/m 2 min 0 min 214 W/m 10,5 km/h (2 Bft) 95,74 %
07.05.2016 07:38 12,2 C 13,9 C 11,1 C 80 % 0 lf 1010,7 hPa 0,0 l/m 2 min 0 min 217 W/m 12,6 km/h (3 Bft) 95,74 %
07.05.2016 07:40 12,3 C 13,9 C 11,1 C 80 % 0 lf 1010,6 hPa 0,0 l/m 2 min 0 min 225 W/m 10,5 km/h (2 Bft) 95,74 %
07.05.2016 07:42 12,3 C 13,9 C 11,7 C 80 % 0 lf 1010,6 hPa 0,0 l/m 2 min 0 min 230 W/m 10,5 km/h (2 Bft) 93,48 %
07.05.2016 07:44 12,4 C 13,9 C 11,7 C 80 % 0 lf 1010,7 hPa 0,0 l/m 2 min 0 min 236 W/m 10,5 km/h (2 Bft) 95,74 %
07.05.2016 07:46 12,4 C 14,4 C 11,7 C 80 % 0 lf 1010,7 hPa 0,0 l/m 2 min 0 min 240 W/m 10,5 km/h (2 Bft) 93,62 %
07.05.2016 07:48 12,5 C 14,4 C 11,7 C 80 % 0 lf 1010,6 hPa 0,0 l/m 2 min 0 min 248 W/m 14,6 km/h (3 Bft) 95,74 %
07.05.2016 07:50 12,6 C 14,4 C 12,2 C 80 % 0 lf 1010,7 hPa 0,0 l/m 2 min 0 min 253 W/m 12,6 km/h (3 Bft) 93,62 %
07.05.2016 07:52 12,7 C 14,4 C 12,2 C 80 % 0 lf 1010,7 hPa 0,0 l/m 2 min 0 min 259 W/m 8,4 km/h (2 Bft) 93,62 %
07.05.2016 07:54 12,7 C 14,4 C 12,2 C 80 % 0 lf 1010,7 hPa 0,0 l/m 2 min 0 min 264 W/m 10,5 km/h (2 Bft) 95,65 %
07.05.2016 07:56 12,8 C 14,4 C 12,2 C 80 % 0 lf 1010,7 hPa 0,0 l/m 2 min 0 min 271 W/m 10,5 km/h (2 Bft) 97,87 %
07.05.2016 07:58 12,9 C 14,4 C 12,2 C 79 % 0 lf 1010,7 hPa 0,0 l/m 2 min 0 min 276 W/m 10,5 km/h (2 Bft) 91,49 %
07.05.2016 08:00 13,0 C 15,0 C 12,2 C 79 % 0 lf 1010,8 hPa 0,0 l/m 2 min 0 min 281 W/m 10,5 km/h (2 Bft) 91,49 %
07.05.2016 08:02 13,1 C 15,0 C 12,2 C 79 % 0 lf 1010,7 hPa 0,0 l/m 2 min 0 min 288 W/m 12,6 km/h (3 Bft) 95,74 %
07.05.2016 08:04 13,2 C 15,0 C 12,8 C 79 % 0 lf 1010,7 hPa 0,0 l/m 2 min 0 min 294 W/m 10,5 km/h (2 Bft) 91,49 %
07.05.2016 08:06 13,3 C 15,0 C 12,8 C 79 % 0 lf 1010,8 hPa 0,0 l/m 2 min 0 min 301 W/m 12,6 km/h (3 Bft) 95,65 %
07.05.2016 08:08 13,4 C 15,6 C 12,8 C 79 % 0 lf 1010,7 hPa 0,0 l/m 2 min 0 min 304 W/m 10,5 km/h (2 Bft) 93,62 %
07.05.2016 08:10 13,5 C 15,6 C 12,8 C 78 % 0 lf 1010,8 hPa 0,0 l/m 2 min 0 min 310 W/m 14,6 km/h (3 Bft) 95,74 %
07.05.2016 08:12 13,6 C 15,6 C 13,3 C 78 % 0 lf 1010,7 hPa 0,0 l/m 2 min 0 min 317 W/m 10,5 km/h (2 Bft) 93,62 %
07.05.2016 08:14 13,7 C 15,6 C 13,3 C 78 % 0 lf 1010,8 hPa 0,0 l/m 2 min 0 min 323 W/m 8,4 km/h (2 Bft) 93,62 %
07.05.2016 08:16 13,9 C 15,6 C 13,3 C 78 % 0 lf 1010,8 hPa 0,0 l/m 2 min 0 min 327 W/m 10,5 km/h (2 Bft) 91,49 %
07.05.2016 08:18 14,0 C 15,6 C 13,3 C 77 % 0 lf 1010,8 hPa 0,0 l/m 2 min 0 min 335 W/m 12,6 km/h (3 Bft) 95,65 %
07.05.2016 08:20 14,2 C 15,6 C 13,9 C 77 % 0 lf 1010,9 hPa 0,0 l/m 2 min 0 min 341 W/m 10,5 km/h (2 Bft) 95,74 %
07.05.2016 08:22 14,2 C 16,1 C 13,3 C 76 % 0 lf 1010,9 hPa 0,0 l/m 2 min 0 min 347 W/m 10,5 km/h (2 Bft) 93,62 %
07.05.2016 08:24 14,3 C 16,1 C 13,9 C 76 % 0 lf 1011,0 hPa 0,0 l/m 2 min 0 min 351 W/m 16,7 km/h (3 Bft) 93,62 %
07.05.2016 08:26 14,4 C 16,1 C 13,9 C 76 % 0 lf 1011,0 hPa 0,0 l/m 2 min 0 min 358 W/m 14,6 km/h (3 Bft) 93,62 %
07.05.2016 08:28 14,6 C 16,1 C 13,9 C 75 % 0 lf 1010,9 hPa 0,0 l/m 2 min 0 min 365 W/m 14,6 km/h (3 Bft) 95,74 %
07.05.2016 08:30 14,7 C 17,2 C 13,9 C 75 % 0 lf 1010,9 hPa 0,0 l/m 2 min 0 min 370 W/m 16,7 km/h (3 Bft) 95,65 %
07.05.2016 08:32 14,8 C 18,9 C 13,9 C 74 % 0 lf 1010,9 hPa 0,0 l/m 2 min 0 min 376 W/m 12,6 km/h (3 Bft) 93,62 %
07.05.2016 08:34 14,9 C 19,4 C 14,4 C 73 % 0 lf 1010,9 hPa 0,0 l/m 2 min 0 min 383 W/m 16,7 km/h (3 Bft) 91,49 %
07.05.2016 08:36 15,1 C 20,6 C 14,4 C 73 % 0 lf 1010,9 hPa 0,0 l/m 2 min 0 min 387 W/m 16,7 km/h (3 Bft) 93,62 %
07.05.2016 08:38 15,3 C 20,6 C 14,4 C 72 % 0 lf 1010,9 hPa 0,0 l/m 2 min 0 min 393 W/m 14,6 km/h (3 Bft) 97,87 %
07.05.2016 08:40 15,4 C 18,9 C 14,4 C 71 % 0 lf 1011,0 hPa 0,0 l/m 2 min 0 min 399 W/m 20,9 km/h (4 Bft) 95,65 %
07.05.2016 08:42 15,6 C 18,3 C 15,0 C 71 % 0 lf 1010,9 hPa 0,0 l/m 2 min 0 min 405 W/m 14,6 km/h (3 Bft) 95,74 %
07.05.2016 08:44 15,7 C 17,8 C 15,0 C 71 % 0 lf 1011,0 hPa 0,0 l/m 2 min 0 min 409 W/m 10,5 km/h (2 Bft) 93,62 %
07.05.2016 08:46 15,9 C 17,8 C 15,0 C 71 % 0 lf 1011,0 hPa 0,0 l/m 2 min 0 min 416 W/m 20,9 km/h (4 Bft) 95,74 %
07.05.2016 08:48 16,0 C 18,3 C 15,0 C 70 % 0 lf 1010,9 hPa 0,0 l/m 2 min 0 min 423 W/m 27,2 km/h (4 Bft) 100,00 %
07.05.2016 08:50 16,1 C 18,3 C 15,0 C 69 % 0 lf 1011,0 hPa 0,0 l/m 2 min 0 min 426 W/m 23,0 km/h (4 Bft) 95,74 %
07.05.2016 08:52 16,2 C 19,4 C 15,0 C 68 % 0 lf 1011,0 hPa 0,0 l/m 2 min 0 min 432 W/m 20,9 km/h (4 Bft) 100,00 %
07.05.2016 08:54 16,3 C 21,1 C 15,0 C 68 % 0 lf 1011,0 hPa 0,0 l/m 2 min 0 min 438 W/m 20,9 km/h (4 Bft) 100,00 %
07.05.2016 08:56 16,4 C 22,2 C 15,6 C 68 % 0 lf 1011,0 hPa 0,0 l/m 2 min 0 min 443 W/m 23,0 km/h (4 Bft) 100,00 %
07.05.2016 08:58 16,6 C 22,2 C 15,0 C 68 % 0 lf 1011,0 hPa 0,0 l/m 2 min 0 min 450 W/m 23,0 km/h (4 Bft) 95,74 %
07.05.2016 09:00 16,7 C 22,2 C 15,6 C 67 % 0 lf 1011,0 hPa 0,0 l/m 2 min 0 min 455 W/m 18,8 km/h (3 Bft) 97,87 %
07.05.2016 09:02 16,8 C 22,8 C 15,6 C 67 % 0 lf 1011,0 hPa 0,0 l/m 2 min 0 min 462 W/m 25,1 km/h (4 Bft) 95,74 %
07.05.2016 09:04 16,9 C 23,9 C 15,6 C 66 % 0 lf 1011,0 hPa 0,0 l/m 2 min 0 min 467 W/m 18,8 km/h (3 Bft) 95,65 %
07.05.2016 09:06 17,0 C 23,9 C 15,6 C 66 % 0 lf 1011,0 hPa 0,0 l/m 2 min 0 min 473 W/m 27,2 km/h (4 Bft) 95,74 %
07.05.2016 09:08 17,2 C 25,0 C 15,6 C 66 % 0 lf 1010,9 hPa 0,0 l/m 2 min 0 min 480 W/m 14,6 km/h (3 Bft) 95,74 %
07.05.2016 09:10 17,3 C 23,9 C 15,6 C 65 % 0 lf 1011,0 hPa 0,0 l/m 2 min 0 min 484 W/m 20,9 km/h (4 Bft) 97,87 %
07.05.2016 09:12 17,4 C 23,9 C 16,1 C 65 % 0 lf 1011,0 hPa 0,0 l/m 2 min 0 min 489 W/m 16,7 km/h (3 Bft) 95,74 %
07.05.2016 09:14 17,6 C 24,4 C 16,1 C 65 % 0 lf 1011,0 hPa 0,0 l/m 2 min 0 min 496 W/m 35,6 km/h (5 Bft) 97,87 %
07.05.2016 09:16 17,8 C 22,8 C 16,1 C 63 % 0 lf 1011,0 hPa 0,0 l/m 2 min 0 min 499 W/m 29,3 km/h (5 Bft) 93,48 %
07.05.2016 09:18 17,9 C 23,3 C 16,1 C 63 % 0 lf 1011,1 hPa 0,0 l/m 2 min 0 min 503 W/m 20,9 km/h (4 Bft) 95,74 %
07.05.2016 09:20 18,1 C 23,3 C 16,7 C 63 % 0 lf 1011,1 hPa 0,0 l/m 2 min 0 min 510 W/m 20,9 km/h (4 Bft) 93,62 %
07.05.2016 09:22 18,2 C 23,3 C 16,7 C 62 % 0 lf 1011,0 hPa 0,0 l/m 2 min 0 min 516 W/m 23,0 km/h (4 Bft) 95,74 %
07.05.2016 09:24 18,3 C 23,9 C 16,7 C 62 % 0 lf 1011,0 hPa 0,0 l/m 2 min 0 min 521 W/m 20,9 km/h (4 Bft) 97,87 %
07.05.2016 09:26 18,5 C 24,4 C 16,7 C 62 % 0 lf 1011,0 hPa 0,0 l/m 2 min 0 min 528 W/m 25,1 km/h (4 Bft) 97,87 %
07.05.2016 09:28 18,6 C 25,0 C 16,7 C 62 % 0 lf 1011,0 hPa 0,0 l/m 2 min 0 min 534 W/m 16,7 km/h (3 Bft) 97,83 %
07.05.2016 09:30 18,7 C 25,0 C 17,2 C 62 % 0 lf 1011,0 hPa 0,0 l/m 2 min 0 min 539 W/m 10,5 km/h (2 Bft) 97,87 %
07.05.2016 09:32 18,9 C 24,4 C 18,3 C 62 % 0 lf 1011,0 hPa 0,0 l/m 2 min 0 min 545 W/m 16,7 km/h (3 Bft) 93,62 %
07.05.2016 09:34 19,1 C 26,1 C 18,3 C 62 % 0 lf 1011,0 hPa 0,0 l/m 2 min 0 min 550 W/m 23,0 km/h (4 Bft) 91,49 %
07.05.2016 09:36 19,2 C 26,1 C 18,3 C 62 % 0 lf 1011,0 hPa 0,0 l/m 2 min 0 min 555 W/m 27,2 km/h (4 Bft) 95,74 %
07.05.2016 09:38 19,3 C 26,1 C 18,3 C 62 % 0 lf 1011,1 hPa 0,0 l/m 2 min 0 min 558 W/m 16,7 km/h (3 Bft) 97,87 %
07.05.2016 09:40 19,4 C 26,1 C 18,9 C 62 % 0 lf 1011,0 hPa 0,0 l/m 2 min 0 min 563 W/m 14,6 km/h (3 Bft) 97,83 %
07.05.2016 09:42 19,6 C 25,6 C 20,0 C 61 % 0 lf 1011,0 hPa 0,0 l/m 2 min 0 min 570 W/m 18,8 km/h (3 Bft) 93,62 %
07.05.2016 09:44 19,8 C 27,2 C 20,6 C 62 % 0 lf 1010,9 hPa 0,0 l/m 2 min 0 min 577 W/m 18,8 km/h (3 Bft) 97,87 %
07.05.2016 09:46 19,9 C 27,8 C 21,1 C 62 % 0 lf 1010,9 hPa 0,0 l/m 2 min 0 min 583 W/m 18,8 km/h (3 Bft) 100,00 %
07.05.2016 09:48 20,1 C 28,9 C 21,1 C 61 % 0 lf 1010,9 hPa 0,0 l/m 2 min 0 min 587 W/m 16,7 km/h (3 Bft) 97,87 %
07.05.2016 09:50 20,2 C 27,2 C 21,7 C 60 % 0 lf 1010,8 hPa 0,0 l/m 2 min 0 min 592 W/m 16,7 km/h (3 Bft) 100,00 %
07.05.2016 09:52 20,3 C 27,2 C 22,8 C 59 % 0 lf 1010,9 hPa 0,0 l/m 2 min 0 min 597 W/m 23,0 km/h (4 Bft) 97,83 %
07.05.2016 09:54 20,5 C 27,2 C 23,3 C 59 % 0 lf 1010,9 hPa 0,0 l/m 2 min 0 min 600 W/m 23,0 km/h (4 Bft) 100,00 %
07.05.2016 09:56 20,7 C 28,3 C 24,4 C 60 % 0 lf 1010,8 hPa 0,0 l/m 2 min 0 min 605 W/m 20,9 km/h (4 Bft) 97,87 %
07.05.2016 09:58 20,8 C 28,3 C 24,4 C 58 % 0 lf 1010,9 hPa 0,0 l/m 2 min 0 min 611 W/m 20,9 km/h (4 Bft) 100,00 %
07.05.2016 10:00 20,9 C 27,2 C 24,4 C 57 % 0 lf 1010,9 hPa 0,0 l/m 2 min 0 min 615 W/m 20,9 km/h (4 Bft) 97,87 %
07.05.2016 10:02 21,0 C 28,3 C 23,9 C 57 % 0 lf 1011,0 hPa 0,0 l/m 2 min 0 min 620 W/m 18,8 km/h (3 Bft) 95,65 %
07.05.2016 10:04 21,1 C 27,8 C 25,0 C 57 % 0 lf 1010,9 hPa 0,0 l/m 2 min 0 min 625 W/m 27,2 km/h (4 Bft) 95,74 %
07.05.2016 10:06 21,2 C 27,8 C 25,6 C 56 % 0 lf 1010,9 hPa 0,0 l/m 2 min 0 min 629 W/m 20,9 km/h (4 Bft) 100,00 %
07.05.2016 10:08 21,3 C 27,8 C 26,1 C 56 % 0 lf 1010,8 hPa 0,0 l/m 2 min 0 min 634 W/m 18,8 km/h (3 Bft) 97,87 %
07.05.2016 10:10 21,4 C 27,8 C 26,7 C 56 % 0 lf 1010,8 hPa 0,0 l/m 2 min 0 min 636 W/m 20,9 km/h (4 Bft) 100,00 %
07.05.2016 10:12 21,6 C 28,9 C 27,2 C 57 % 0 lf 1010,8 hPa 0,0 l/m 2 min 0 min 641 W/m 20,9 km/h (4 Bft) 97,87 %
07.05.2016 10:14 21,7 C 29,4 C 27,2 C 56 % 0 lf 1010,9 hPa 0,0 l/m 2 min 0 min 646 W/m 18,8 km/h (3 Bft) 100,00 %
07.05.2016 10:16 21,8 C 28,9 C 27,8 C 56 % 0 lf 1011,0 hPa 0,0 l/m 2 min 0 min 652 W/m 18,8 km/h (3 Bft) 100,00 %
07.05.2016 10:18 21,9 C 29,4 C 27,2 C 56 % 0 lf 1010,9 hPa 0,0 l/m 2 min 0 min 657 W/m 16,7 km/h (3 Bft) 97,87 %
07.05.2016 10:20 22,0 C 28,3 C 27,2 C 55 % 0 lf 1011,0 hPa 0,0 l/m 2 min 0 min 661 W/m 16,7 km/h (3 Bft) 100,00 %
07.05.2016 10:22 22,1 C 28,9 C 27,8 C 55 % 0 lf 1011,0 hPa 0,0 l/m 2 min 0 min 664 W/m 12,6 km/h (3 Bft) 97,87 %
07.05.2016 10:24 22,2 C 28,3 C 27,8 C 54 % 0 lf 1010,9 hPa 0,0 l/m 2 min 0 min 668 W/m 14,6 km/h (3 Bft) 95,74 %
07.05.2016 10:26 22,2 C 27,8 C 28,3 C 55 % 0 lf 1010,8 hPa 0,0 l/m 2 min 0 min 675 W/m 16,7 km/h (3 Bft) 91,30 %
07.05.2016 10:28 22,3 C 27,8 C 28,3 C 54 % 0 lf 1010,9 hPa 0,0 l/m 2 min 0 min 678 W/m 27,2 km/h (4 Bft) 93,62 %
07.05.2016 10:30 22,4 C 28,3 C 27,8 C 53 % 0 lf 1010,9 hPa 0,0 l/m 2 min 0 min 683 W/m 20,9 km/h (4 Bft) 97,87 %
07.05.2016 10:32 22,4 C 27,8 C 28,3 C 52 % 0 lf 1010,9 hPa 0,0 l/m 2 min 0 min 687 W/m 18,8 km/h (3 Bft) 95,74 %
07.05.2016 10:34 22,6 C 29,4 C 28,3 C 54 % 0 lf 1010,9 hPa 0,0 l/m 2 min 0 min 692 W/m 16,7 km/h (3 Bft) 95,74 %
07.05.2016 10:36 22,7 C 29,4 C 27,8 C 53 % 0 lf 1010,9 hPa 0,0 l/m 2 min 0 min 696 W/m 23,0 km/h (4 Bft) 97,87 %
07.05.2016 10:38 22,7 C 28,9 C 27,8 C 52 % 0 lf 1010,8 hPa 0,0 l/m 2 min 0 min 700 W/m 23,0 km/h (4 Bft) 97,87 %
07.05.2016 10:40 22,8 C 27,8 C 27,8 C 51 % 0 lf 1010,8 hPa 0,0 l/m 2 min 0 min 705 W/m 23,0 km/h (4 Bft) 95,65 %
07.05.2016 10:42 22,8 C 28,9 C 28,3 C 52 % 0 lf 1010,7 hPa 0,0 l/m 2 min 0 min 710 W/m 25,1 km/h (4 Bft) 97,87 %
07.05.2016 10:44 22,9 C 27,8 C 28,3 C 52 % 0 lf 1010,7 hPa 0,0 l/m 2 min 0 min 712 W/m 16,7 km/h (3 Bft) 95,74 %
07.05.2016 10:46 22,9 C 28,9 C 28,9 C 54 % 0 lf 1010,7 hPa 0,0 l/m 2 min 0 min 718 W/m 16,7 km/h (3 Bft) 93,62 %
07.05.2016 10:48 23,0 C 26,7 C 28,3 C 51 % 0 lf 1010,7 hPa 0,0 l/m 2 min 0 min 721 W/m 18,8 km/h (3 Bft) 93,62 %
07.05.2016 10:50 23,0 C 26,1 C 27,2 C 51 % 0 lf 1010,7 hPa 0,0 l/m 2 min 0 min 725 W/m 20,9 km/h (4 Bft) 93,48 %
07.05.2016 10:52 23,0 C 27,2 C 26,7 C 52 % 0 lf 1010,7 hPa 0,0 l/m 2 min 0 min 729 W/m 25,1 km/h (4 Bft) 95,74 %
07.05.2016 10:54 23,0 C 28,9 C 27,2 C 52 % 0 lf 1010,6 hPa 0,0 l/m 2 min 0 min 733 W/m 20,9 km/h (4 Bft) 95,74 %
07.05.2016 10:56 23,1 C 28,9 C 27,8 C 51 % 0 lf 1010,7 hPa 0,0 l/m 2 min 0 min 737 W/m 18,8 km/h (3 Bft) 89,36 %
07.05.2016 10:58 23,1 C 28,9 C 28,3 C 51 % 0 lf 1010,6 hPa 0,0 l/m 2 min 0 min 740 W/m 20,9 km/h (4 Bft) 89,36 %
07.05.2016 11:00 23,2 C 29,4 C 28,9 C 52 % 0 lf 1010,6 hPa 0,0 l/m 2 min 0 min 743 W/m 18,8 km/h (3 Bft) 93,62 %
07.05.2016 11:02 23,3 C 29,4 C 28,9 C 51 % 0 lf 1010,6 hPa 0,0 l/m 2 min 0 min 747 W/m 27,2 km/h (4 Bft) 93,48 %
07.05.2016 11:04 23,4 C 29,4 C 28,9 C 50 % 0 lf 1010,7 hPa 0,0 l/m 2 min 0 min 750 W/m 18,8 km/h (3 Bft) 95,74 %
07.05.2016 11:06 23,5 C 29,4 C 28,9 C 50 % 0 lf 1010,7 hPa 0,0 l/m 2 min 0 min 755 W/m 18,8 km/h (3 Bft) 95,74 %
07.05.2016 11:08 23,6 C 28,9 C 28,3 C 50 % 0 lf 1010,7 hPa 0,0 l/m 2 min 0 min 759 W/m 20,9 km/h (4 Bft) 93,62 %
07.05.2016 11:10 23,7 C 28,9 C 28,3 C 49 % 0 lf 1010,7 hPa 0,0 l/m 2 min 0 min 763 W/m 23,0 km/h (4 Bft) 95,74 %
07.05.2016 11:12 23,8 C 28,9 C 28,9 C 49 % 0 lf 1010,6 hPa 0,0 l/m 2 min 0 min 765 W/m 23,0 km/h (4 Bft) 95,74 %
07.05.2016 11:14 23,9 C 28,9 C 28,3 C 49 % 0 lf 1010,7 hPa 0,0 l/m 2 min 0 min 767 W/m 20,9 km/h (4 Bft) 95,65 %
07.05.2016 11:16 23,9 C 28,9 C 28,3 C 49 % 0 lf 1010,7 hPa 0,0 l/m 2 min 0 min 772 W/m 27,2 km/h (4 Bft) 95,74 %
07.05.2016 11:18 24,0 C 28,9 C 27,2 C 49 % 0 lf 1010,7 hPa 0,0 l/m 2 min 0 min 773 W/m 25,1 km/h (4 Bft) 95,74 %
07.05.2016 11:20 24,1 C 28,3 C 26,1 C 49 % 0 lf 1010,6 hPa 0,0 l/m 2 min 0 min 778 W/m 23,0 km/h (4 Bft) 95,74 %
07.05.2016 11:22 24,1 C 28,3 C 25,6 C 50 % 0 lf 1010,6 hPa 0,0 l/m 2 min 0 min 779 W/m 18,8 km/h (3 Bft) 95,74 %
07.05.2016 11:24 24,1 C 29,4 C 25,6 C 50 % 0 lf 1010,6 hPa 0,0 l/m 2 min 0 min 783 W/m 27,2 km/h (4 Bft) 95,74 %
07.05.2016 11:26 24,2 C 29,4 C 25,6 C 50 % 0 lf 1010,6 hPa 0,0 l/m 2 min 0 min 788 W/m 20,9 km/h (4 Bft) 97,83 %
07.05.2016 11:28 24,2 C 28,9 C 26,7 C 49 % 0 lf 1010,5 hPa 0,0 l/m 2 min 0 min 789 W/m 20,9 km/h (4 Bft) 95,74 %
07.05.2016 11:30 24,2 C 28,9 C 27,2 C 48 % 0 lf 1010,5 hPa 0,0 l/m 2 min 0 min 791 W/m 20,9 km/h (4 Bft) 93,62 %
07.05.2016 11:32 24,3 C 28,3 C 28,3 C 48 % 0 lf 1010,5 hPa 0,0 l/m 2 min 0 min 794 W/m 16,7 km/h (3 Bft) 95,74 %
07.05.2016 11:34 24,3 C 28,3 C 28,9 C 49 % 0 lf 1010,5 hPa 0,0 l/m 2 min 0 min 799 W/m 18,8 km/h (3 Bft) 95,74 %
07.05.2016 11:36 24,3 C 28,3 C 28,3 C 49 % 0 lf 1010,5 hPa 0,0 l/m 2 min 0 min 802 W/m 18,8 km/h (3 Bft) 95,65 %
07.05.2016 11:38 24,3 C 27,8 C 28,9 C 49 % 0 lf 1010,5 hPa 0,0 l/m 2 min 0 min 808 W/m 18,8 km/h (3 Bft) 93,62 %
07.05.2016 11:40 24,3 C 28,3 C 28,9 C 50 % 0 lf 1010,5 hPa 0,0 l/m 2 min 0 min 791 W/m 18,8 km/h (3 Bft) 95,74 %
07.05.2016 11:42 24,4 C 28,3 C 28,9 C 49 % 0 lf 1010,5 hPa 0,0 l/m 2 min 0 min 675 W/m 18,8 km/h (3 Bft) 97,87 %
07.05.2016 11:44 24,4 C 28,3 C 28,9 C 49 % 0 lf 1010,5 hPa 0,0 l/m 2 min 0 min 450 W/m 20,9 km/h (4 Bft) 97,87 %
07.05.2016 11:46 24,4 C 29,4 C 30,0 C 51 % 0 lf 1010,5 hPa 0,0 l/m 0 min 0 min 303 W/m 12,6 km/h (3 Bft) 97,87 %
07.05.2016 11:48 24,5 C 32,2 C 30,0 C 52 % 0 lf 1010,4 hPa 0,0 l/m 2 min 0 min 384 W/m 10,5 km/h (2 Bft) 97,83 %
07.05.2016 11:50 24,6 C 31,7 C 30,6 C 51 % 0 lf 1010,4 hPa 0,0 l/m 2 min 0 min 561 W/m 20,9 km/h (4 Bft) 95,74 %
07.05.2016 11:52 24,7 C 30,6 C 30,0 C 49 % 0 lf 1010,3 hPa 0,0 l/m 2 min 0 min 717 W/m 20,9 km/h (4 Bft) 97,87 %
07.05.2016 11:54 24,8 C 30,6 C 30,6 C 49 % 0 lf 1010,4 hPa 0,0 l/m 2 min 0 min 782 W/m 23,0 km/h (4 Bft) 95,74 %
07.05.2016 11:56 24,9 C 30,6 C 30,6 C 48 % 0 lf 1010,4 hPa 0,0 l/m 2 min 0 min 828 W/m 20,9 km/h (4 Bft) 93,62 %
07.05.2016 11:58 24,9 C 30,0 C 30,0 C 47 % 0 lf 1010,4 hPa 0,0 l/m 2 min 0 min 835 W/m 20,9 km/h (4 Bft) 97,87 %
07.05.2016 12:00 25,1 C 30,6 C 30,0 C 48 % 0 lf 1010,4 hPa 0,0 l/m 2 min 0 min 837 W/m 23,0 km/h (4 Bft) 95,65 %
07.05.2016 12:02 25,1 C 32,2 C 30,0 C 48 % 0 lf 1010,4 hPa 0,0 l/m 2 min 0 min 837 W/m 23,0 km/h (4 Bft) 93,62 %
07.05.2016 12:04 25,2 C 31,1 C 30,6 C 46 % 0 lf 1010,4 hPa 0,0 l/m 2 min 0 min 839 W/m 31,4 km/h (5 Bft) 97,92 %
07.05.2016 12:06 25,4 C 32,2 C 30,6 C 48 % 0 lf 1010,4 hPa 0,0 l/m 2 min 0 min 836 W/m 23,0 km/h (4 Bft) 95,74 %
07.05.2016 12:08 25,5 C 32,2 C 31,1 C 45 % 0 lf 1010,3 hPa 0,0 l/m 2 min 0 min 807 W/m 23,0 km/h (4 Bft) 97,87 %
07.05.2016 12:10 25,6 C 32,2 C 30,0 C 45 % 0 lf 1010,2 hPa 0,0 l/m 2 min 0 min 807 W/m 27,2 km/h (4 Bft) 95,74 %
07.05.2016 12:12 25,7 C 31,1 C 29,4 C 43 % 0 lf 1010,2 hPa 0,0 l/m 2 min 0 min 817 W/m 27,2 km/h (4 Bft) 95,65 %
07.05.2016 12:14 25,8 C 32,2 C 30,0 C 44 % 0 lf 1010,2 hPa 0,0 l/m 2 min 0 min 857 W/m 18,8 km/h (3 Bft) 97,87 %
07.05.2016 12:16 25,9 C 31,1 C 30,6 C 42 % 0 lf 1010,2 hPa 0,0 l/m 2 min 0 min 860 W/m 25,1 km/h (4 Bft) 97,87 %
07.05.2016 12:18 25,9 C 31,1 C 30,0 C 41 % 0 lf 1010,2 hPa 0,0 l/m 2 min 0 min 865 W/m 23,0 km/h (4 Bft) 91,49 %
07.05.2016 12:20 26,1 C 31,7 C 30,0 C 42 % 0 lf 1010,1 hPa 0,0 l/m 2 min 0 min 865 W/m 25,1 km/h (4 Bft) 97,87 %
07.05.2016 12:22 26,1 C 32,2 C 30,0 C 42 % 0 lf 1010,0 hPa 0,0 l/m 2 min 0 min 867 W/m 23,0 km/h (4 Bft) 95,74 %
07.05.2016 12:24 26,2 C 31,7 C 30,0 C 40 % 0 lf 1010,0 hPa 0,0 l/m 2 min 0 min 871 W/m 18,8 km/h (3 Bft) 97,83 %
07.05.2016 12:26 26,3 C 32,8 C 30,0 C 42 % 0 lf 1010,0 hPa 0,0 l/m 2 min 0 min 875 W/m 12,6 km/h (3 Bft) 100,00 %
07.05.2016 12:28 26,4 C 32,8 C 31,1 C 42 % 0 lf 1010,0 hPa 0,0 l/m 2 min 0 min 880 W/m 16,7 km/h (3 Bft) 95,74 %
07.05.2016 12:30 26,5 C 31,7 C 31,7 C 41 % 0 lf 1009,9 hPa 0,0 l/m 2 min 0 min 887 W/m 23,0 km/h (4 Bft) 95,74 %
07.05.2016 12:32 26,5 C 31,1 C 30,6 C 37 % 0 lf 1010,0 hPa 0,0 l/m 2 min 0 min 891 W/m 29,3 km/h (5 Bft) 100,00 %
07.05.2016 12:34 26,6 C 31,1 C 30,6 C 38 % 0 lf 1009,9 hPa 0,0 l/m 2 min 0 min 885 W/m 25,1 km/h (4 Bft) 97,83 %
07.05.2016 12:36 26,6 C 32,2 C 31,1 C 39 % 0 lf 1009,9 hPa 0,0 l/m 2 min 0 min 883 W/m 23,0 km/h (4 Bft) 95,74 %
07.05.2016 12:38 26,6 C 30,6 C 30,6 C 38 % 0 lf 1009,9 hPa 0,0 l/m 2 min 0 min 889 W/m 29,3 km/h (5 Bft) 95,74 %
07.05.2016 12:40 26,6 C 31,1 C 30,6 C 38 % 0 lf 1009,9 hPa 0,0 l/m 2 min 0 min 887 W/m 25,1 km/h (4 Bft) 95,74 %
07.05.2016 12:42 26,6 C 32,2 C 31,7 C 39 % 0 lf 1009,9 hPa 0,0 l/m 2 min 0 min 891 W/m 14,6 km/h (3 Bft) 95,74 %
07.05.2016 12:44 26,7 C 32,2 C 31,7 C 38 % 0 lf 1009,9 hPa 0,0 l/m 2 min 0 min 895 W/m 14,6 km/h (3 Bft) 97,87 %
07.05.2016 12:46 26,7 C 31,7 C 31,1 C 38 % 0 lf 1009,9 hPa 0,0 l/m 2 min 0 min 895 W/m 33,5 km/h (5 Bft) 97,83 %
07.05.2016 12:48 26,7 C 31,7 C 30,6 C 37 % 0 lf 1009,9 hPa 0,0 l/m 2 min 0 min 897 W/m 25,1 km/h (4 Bft) 95,74 %
07.05.2016 12:50 26,8 C 31,1 C 30,0 C 37 % 0 lf 1009,9 hPa 0,0 l/m 2 min 0 min 894 W/m 27,2 km/h (4 Bft) 97,87 %
07.05.2016 12:52 26,8 C 31,7 C 28,9 C 38 % 0 lf 1009,9 hPa 0,0 l/m 2 min 0 min 895 W/m 25,1 km/h (4 Bft) 97,87 %
07.05.2016 12:54 26,9 C 33,3 C 28,3 C 37 % 0 lf 1009,9 hPa 0,0 l/m 2 min 0 min 889 W/m 27,2 km/h (4 Bft) 97,87 %
07.05.2016 12:56 26,9 C 32,2 C 27,8 C 38 % 0 lf 1009,8 hPa 0,0 l/m 2 min 0 min 885 W/m 20,9 km/h (4 Bft) 95,74 %
07.05.2016 12:58 27,0 C 32,2 C 27,8 C 39 % 0 lf 1009,9 hPa 0,0 l/m 2 min 0 min 875 W/m 16,7 km/h (3 Bft) 97,83 %
07.05.2016 13:00 27,1 C 32,2 C 27,2 C 38 % 0 lf 1009,9 hPa 0,0 l/m 2 min 0 min 883 W/m 23,0 km/h (4 Bft) 93,62 %
07.05.2016 13:02 27,0 C 30,6 C 27,2 C 39 % 0 lf 1009,8 hPa 0,0 l/m 2 min 0 min 882 W/m 23,0 km/h (4 Bft) 91,49 %
07.05.2016 13:04 27,0 C 31,1 C 26,7 C 39 % 0 lf 1009,9 hPa 0,0 l/m 2 min 0 min 884 W/m 25,1 km/h (4 Bft) 97,87 %
07.05.2016 13:06 27,0 C 32,2 C 26,7 C 41 % 0 lf 1009,8 hPa 0,0 l/m 2 min 0 min 885 W/m 18,8 km/h (3 Bft) 97,87 %
07.05.2016 13:08 27,1 C 33,3 C 27,2 C 40 % 0 lf 1009,9 hPa 0,0 l/m 2 min 0 min 885 W/m 16,7 km/h (3 Bft) 97,87 %
07.05.2016 13:10 27,1 C 33,3 C 27,2 C 40 % 0 lf 1009,8 hPa 0,0 l/m 2 min 0 min 889 W/m 23,0 km/h (4 Bft) 100,00 %
07.05.2016 13:12 27,1 C 31,7 C 26,1 C 38 % 0 lf 1009,8 hPa 0,0 l/m 2 min 0 min 887 W/m 31,4 km/h (5 Bft) 97,87 %
07.05.2016 13:14 27,2 C 33,3 C 26,7 C 40 % 0 lf 1009,8 hPa 0,0 l/m 2 min 0 min 888 W/m 18,8 km/h (3 Bft) 97,87 %
07.05.2016 13:16 27,2 C 33,3 C 26,7 C 40 % 0 lf 1009,8 hPa 0,0 l/m 2 min 0 min 893 W/m 27,2 km/h (4 Bft) 100,00 %
07.05.2016 13:18 27,2 C 31,7 C 26,7 C 37 % 0 lf 1009,8 hPa 0,0 l/m 2 min 0 min 893 W/m 25,1 km/h (4 Bft) 100,00 %
07.05.2016 13:20 27,2 C 32,2 C 26,7 C 37 % 0 lf 1009,7 hPa 0,0 l/m 2 min 0 min 888 W/m 14,6 km/h (3 Bft) 100,00 %
07.05.2016 13:22 27,3 C 33,9 C 26,7 C 38 % 0 lf 1009,7 hPa 0,0 l/m 2 min 0 min 895 W/m 16,7 km/h (3 Bft) 97,83 %
07.05.2016 13:24 27,4 C 33,9 C 26,7 C 38 % 0 lf 1009,8 hPa 0,0 l/m 2 min 0 min 895 W/m 18,8 km/h (3 Bft) 100,00 %
07.05.2016 13:26 27,5 C 32,8 C 26,1 C 36 % 0 lf 1009,8 hPa 0,0 l/m 2 min 0 min 896 W/m 27,2 km/h (4 Bft) 97,87 %
07.05.2016 13:28 27,5 C 31,7 C 26,1 C 36 % 0 lf 1009,7 hPa 0,0 l/m 2 min 0 min 892 W/m 25,1 km/h (4 Bft) 97,87 %
07.05.2016 13:30 27,4 C 32,2 C 26,1 C 36 % 0 lf 1009,7 hPa 0,0 l/m 2 min 0 min 888 W/m 20,9 km/h (4 Bft) 97,87 %
07.05.2016 13:32 27,4 C 32,2 C 26,1 C 37 % 0 lf 1009,8 hPa 0,0 l/m 2 min 0 min 890 W/m 37,7 km/h (5 Bft) 100,00 %
07.05.2016 13:34 27,4 C 30,6 C 26,1 C 35 % 0 lf 1009,8 hPa 0,0 l/m 2 min 0 min 888 W/m 33,5 km/h (5 Bft) 100,00 %
07.05.2016 13:36 27,3 C 31,7 C 25,6 C 35 % 0 lf 1009,7 hPa 0,0 l/m 2 min 0 min 892 W/m 25,1 km/h (4 Bft) 100,00 %
07.05.2016 13:38 27,3 C 32,2 C 25,6 C 35 % 0 lf 1009,8 hPa 0,0 l/m 2 min 0 min 891 W/m 23,0 km/h (4 Bft) 97,87 %
07.05.2016 13:40 27,3 C 33,3 C 25,6 C 36 % 0 lf 1009,7 hPa 0,0 l/m 2 min 0 min 893 W/m 23,0 km/h (4 Bft) 97,87 %
07.05.2016 13:42 27,3 C 33,3 C 25,6 C 34 % 0 lf 1009,6 hPa 0,0 l/m 2 min 0 min 892 W/m 23,0 km/h (4 Bft) 100,00 %
07.05.2016 13:44 27,4 C 33,9 C 25,6 C 36 % 0 lf 1009,6 hPa 0,0 l/m 2 min 0 min 885 W/m 29,3 km/h (5 Bft) 95,74 %
07.05.2016 13:46 27,4 C 32,2 C 26,1 C 36 % 0 lf 1009,6 hPa 0,0 l/m 2 min 0 min 883 W/m 25,1 km/h (4 Bft) 97,83 %
07.05.2016 13:48 27,5 C 32,8 C 25,6 C 36 % 0 lf 1009,6 hPa 0,0 l/m 2 min 0 min 880 W/m 20,9 km/h (4 Bft) 95,74 %
07.05.2016 13:50 27,6 C 33,3 C 26,1 C 37 % 0 lf 1009,6 hPa 0,0 l/m 2 min 0 min 881 W/m 18,8 km/h (3 Bft) 97,87 %
07.05.2016 13:52 27,6 C 31,1 C 25,6 C 36 % 0 lf 1009,6 hPa 0,0 l/m 2 min 0 min 881 W/m 23,0 km/h (4 Bft) 95,74 %
07.05.2016 13:54 27,5 C 31,1 C 25,6 C 37 % 0 lf 1009,6 hPa 0,0 l/m 2 min 0 min 881 W/m 20,9 km/h (4 Bft) 100,00 %
07.05.2016 13:56 27,5 C 32,8 C 25,6 C 36 % 0 lf 1009,4 hPa 0,0 l/m 2 min 0 min 881 W/m 18,8 km/h (3 Bft) 100,00 %
07.05.2016 13:58 27,6 C 33,9 C 26,1 C 39 % 0 lf 1009,5 hPa 0,0 l/m 2 min 0 min 880 W/m 23,0 km/h (4 Bft) 97,83 %
07.05.2016 14:00 27,6 C 33,3 C 26,1 C 36 % 0 lf 1009,5 hPa 0,0 l/m 2 min 0 min 879 W/m 23,0 km/h (4 Bft) 95,74 %
07.05.2016 14:02 27,6 C 31,7 C 26,1 C 36 % 0 lf 1009,4 hPa 0,0 l/m 2 min 0 min 878 W/m 20,9 km/h (4 Bft) 93,62 %
07.05.2016 14:04 27,6 C 30,6 C 25,6 C 35 % 0 lf 1009,5 hPa 0,0 l/m 2 min 0 min 874 W/m 31,4 km/h (5 Bft) 93,62 %
07.05.2016 14:06 27,4 C 30,6 C 25,6 C 37 % 0 lf 1009,5 hPa 0,0 l/m 2 min 0 min 872 W/m 23,0 km/h (4 Bft) 93,62 %
07.05.2016 14:08 27,4 C 30,0 C 25,6 C 36 % 0 lf 1009,5 hPa 0,0 l/m 2 min 0 min 872 W/m 29,3 km/h (5 Bft) 91,30 %
07.05.2016 14:10 27,3 C 30,6 C 25,6 C 36 % 0 lf 1009,4 hPa 0,0 l/m 2 min 0 min 871 W/m 25,1 km/h (4 Bft) 95,74 %
07.05.2016 14:12 27,2 C 30,0 C 25,6 C 36 % 0 lf 1009,4 hPa 0,0 l/m 2 min 0 min 873 W/m 18,8 km/h (3 Bft) 95,74 %
07.05.2016 14:14 27,2 C 31,7 C 25,6 C 38 % 0 lf 1009,5 hPa 0,0 l/m 2 min 0 min 873 W/m 20,9 km/h (4 Bft) 91,49 %
07.05.2016 14:16 27,2 C 31,1 C 25,6 C 37 % 0 lf 1009,4 hPa 0,0 l/m 2 min 0 min 868 W/m 18,8 km/h (3 Bft) 93,62 %
07.05.2016 14:18 27,2 C 31,7 C 25,6 C 37 % 0 lf 1009,4 hPa 0,0 l/m 2 min 0 min 868 W/m 20,9 km/h (4 Bft) 93,62 %
07.05.2016 14:20 27,2 C 30,6 C 25,6 C 36 % 0 lf 1009,3 hPa 0,0 l/m 2 min 0 min 863 W/m 20,9 km/h (4 Bft) 93,48 %
07.05.2016 14:22 27,2 C 31,1 C 25,6 C 37 % 0 lf 1009,4 hPa 0,0 l/m 2 min 0 min 861 W/m 16,7 km/h (3 Bft) 93,62 %
07.05.2016 14:24 27,2 C 31,1 C 25,6 C 37 % 0 lf 1009,4 hPa 0,0 l/m 2 min 0 min 859 W/m 23,0 km/h (4 Bft) 91,49 %
07.05.2016 14:26 27,2 C 31,7 C 25,6 C 39 % 0 lf 1009,4 hPa 0,0 l/m 2 min 0 min 860 W/m 23,0 km/h (4 Bft) 91,49 %
07.05.2016 14:28 27,3 C 32,2 C 25,6 C 39 % 0 lf 1009,4 hPa 0,0 l/m 2 min 0 min 864 W/m 20,9 km/h (4 Bft) 93,62 %
07.05.2016 14:30 27,3 C 33,3 C 25,6 C 38 % 0 lf 1009,3 hPa 0,0 l/m 2 min 0 min 861 W/m 14,6 km/h (3 Bft) 93,62 %
07.05.2016 14:32 27,4 C 32,2 C 25,6 C 37 % 0 lf 1009,3 hPa 0,0 l/m 2 min 0 min 849 W/m 20,9 km/h (4 Bft) 86,96 %
07.05.2016 14:34 27,4 C 30,6 C 25,6 C 37 % 0 lf 1009,4 hPa 0,0 l/m 2 min 0 min 844 W/m 25,1 km/h (4 Bft) 91,49 %
07.05.2016 14:36 27,3 C 29,4 C 25,6 C 37 % 0 lf 1009,4 hPa 0,0 l/m 2 min 0 min 844 W/m 18,8 km/h (3 Bft) 91,49 %
07.05.2016 14:38 27,3 C 30,6 C 25,6 C 38 % 0 lf 1009,4 hPa 0,0 l/m 2 min 0 min 833 W/m 16,7 km/h (3 Bft) 91,49 %
07.05.2016 14:40 27,3 C 31,7 C 25,6 C 36 % 0 lf 1009,4 hPa 0,0 l/m 2 min 0 min 851 W/m 20,9 km/h (4 Bft) 89,36 %
07.05.2016 14:42 27,3 C 32,8 C 25,6 C 39 % 0 lf 1009,4 hPa 0,0 l/m 2 min 0 min 849 W/m 14,6 km/h (3 Bft) 91,49 %
07.05.2016 14:44 27,3 C 33,9 C 25,6 C 37 % 0 lf 1009,4 hPa 0,0 l/m 2 min 0 min 857 W/m 18,8 km/h (3 Bft) 91,30 %
07.05.2016 14:46 27,4 C 32,8 C 26,1 C 37 % 0 lf 1009,4 hPa 0,0 l/m 2 min 0 min 860 W/m 29,3 km/h (5 Bft) 87,23 %
07.05.2016 14:48 27,5 C 32,2 C 25,6 C 35 % 0 lf 1009,3 hPa 0,0 l/m 2 min 0 min 854 W/m 25,1 km/h (4 Bft) 89,36 %
07.05.2016 14:50 27,5 C 31,7 C 25,6 C 35 % 0 lf 1009,3 hPa 0,0 l/m 2 min 0 min 850 W/m 35,6 km/h (5 Bft) 93,62 %
07.05.2016 14:52 27,5 C 31,1 C 25,6 C 35 % 0 lf 1009,4 hPa 0,0 l/m 2 min 0 min 843 W/m 25,1 km/h (4 Bft) 89,36 %
07.05.2016 14:54 27,5 C 32,2 C 25,6 C 38 % 0 lf 1009,2 hPa 0,0 l/m 2 min 0 min 838 W/m 23,0 km/h (4 Bft) 91,49 %
07.05.2016 14:56 27,6 C 31,1 C 25,6 C 36 % 0 lf 1009,3 hPa 0,0 l/m 2 min 0 min 847 W/m 23,0 km/h (4 Bft) 86,96 %
07.05.2016 14:58 27,5 C 30,0 C 25,6 C 35 % 0 lf 1009,2 hPa 0,0 l/m 2 min 0 min 846 W/m 18,8 km/h (3 Bft) 93,62 %
07.05.2016 15:00 27,4 C 32,2 C 25,6 C 38 % 0 lf 1009,2 hPa 0,0 l/m 2 min 0 min 852 W/m 10,5 km/h (2 Bft) 95,74 %
07.05.2016 15:02 27,5 C 32,2 C 25,6 C 36 % 0 lf 1009,2 hPa 0,0 l/m 2 min 0 min 861 W/m 20,9 km/h (4 Bft) 91,49 %
07.05.2016 15:04 27,5 C 32,2 C 25,6 C 36 % 0 lf 1009,2 hPa 0,0 l/m 2 min 0 min 860 W/m 18,8 km/h (3 Bft) 100,00 %
07.05.2016 15:06 27,6 C 32,2 C 25,6 C 37 % 0 lf 1009,2 hPa 0,0 l/m 2 min 0 min 855 W/m 27,2 km/h (4 Bft) 97,87 %
07.05.2016 15:08 27,6 C 32,2 C 26,1 C 38 % 0 lf 1009,2 hPa 0,0 l/m 2 min 0 min 841 W/m 12,6 km/h (3 Bft) 100,00 %
07.05.2016 15:10 27,7 C 33,3 C 26,1 C 37 % 0 lf 1009,2 hPa 0,0 l/m 2 min 0 min 828 W/m 12,6 km/h (3 Bft) 97,87 %
07.05.2016 15:12 27,7 C 34,4 C 26,1 C 38 % 0 lf 1009,2 hPa 0,0 l/m 2 min 0 min 821 W/m 8,4 km/h (2 Bft) 100,00 %
07.05.2016 15:14 27,8 C 33,9 C 25,6 C 38 % 0 lf 1009,2 hPa 0,0 l/m 2 min 0 min 813 W/m 23,0 km/h (4 Bft) 100,00 %
07.05.2016 15:16 27,9 C 32,8 C 26,1 C 36 % 0 lf 1009,2 hPa 0,0 l/m 2 min 0 min 816 W/m 16,7 km/h (3 Bft) 97,87 %
07.05.2016 15:18 27,9 C 32,8 C 25,6 C 37 % 0 lf 1009,1 hPa 0,0 l/m 2 min 0 min 822 W/m 29,3 km/h (5 Bft) 97,87 %
07.05.2016 15:20 27,9 C 32,2 C 26,1 C 37 % 0 lf 1009,1 hPa 0,0 l/m 2 min 0 min 822 W/m 39,7 km/h (6 Bft) 100,00 %
07.05.2016 15:22 27,9 C 32,2 C 26,1 C 37 % 0 lf 1009,1 hPa 0,0 l/m 2 min 0 min 814 W/m 29,3 km/h (5 Bft) 100,00 %
07.05.2016 15:24 27,9 C 31,1 C 26,1 C 36 % 0 lf 1009,2 hPa 0,0 l/m 2 min 0 min 807 W/m 27,2 km/h (4 Bft) 100,00 %
07.05.2016 15:26 27,8 C 31,7 C 26,1 C 38 % 0 lf 1009,2 hPa 0,0 l/m 2 min 0 min 802 W/m 27,2 km/h (4 Bft) 97,87 %
07.05.2016 15:28 27,8 C 31,1 C 26,1 C 38 % 0 lf 1009,1 hPa 0,0 l/m 2 min 0 min 797 W/m 25,1 km/h (4 Bft) 100,00 %
07.05.2016 15:30 27,8 C 31,1 C 26,1 C 38 % 0 lf 1009,2 hPa 0,0 l/m 2 min 0 min 793 W/m 16,7 km/h (3 Bft) 91,30 %
07.05.2016 15:32 27,7 C 31,7 C 26,1 C 37 % 0 lf 1009,0 hPa 0,0 l/m 2 min 0 min 796 W/m 20,9 km/h (4 Bft) 100,00 %
07.05.2016 15:34 27,7 C 30,6 C 26,1 C 36 % 0 lf 1009,1 hPa 0,0 l/m 2 min 0 min 796 W/m 23,0 km/h (4 Bft) 100,00 %
07.05.2016 15:36 27,7 C 31,1 C 26,1 C 37 % 0 lf 1009,0 hPa 0,0 l/m 2 min 0 min 806 W/m 23,0 km/h (4 Bft) 100,00 %
07.05.2016 15:38 27,7 C 31,1 C 26,1 C 37 % 0 lf 1009,1 hPa 0,0 l/m 2 min 0 min 809 W/m 33,5 km/h (5 Bft) 97,87 %
07.05.2016 15:40 27,7 C 32,8 C 26,1 C 38 % 0 lf 1009,0 hPa 0,0 l/m 2 min 0 min 804 W/m 29,3 km/h (5 Bft) 95,74 %
07.05.2016 15:42 27,7 C 30,0 C 25,6 C 37 % 0 lf 1009,0 hPa 0,0 l/m 2 min 0 min 803 W/m 20,9 km/h (4 Bft) 100,00 %
07.05.2016 15:44 27,7 C 30,6 C 25,6 C 39 % 0 lf 1009,0 hPa 0,0 l/m 2 min 0 min 799 W/m 25,1 km/h (4 Bft) 100,00 %
07.05.2016 15:46 27,6 C 31,1 C 25,6 C 37 % 0 lf 1008,9 hPa 0,0 l/m 2 min 0 min 791 W/m 20,9 km/h (4 Bft) 97,87 %
07.05.2016 15:48 27,6 C 31,1 C 26,1 C 37 % 0 lf 1008,9 hPa 0,0 l/m 2 min 0 min 779 W/m 18,8 km/h (3 Bft) 97,87 %
07.05.2016 15:50 27,6 C 31,1 C 26,1 C 37 % 0 lf 1008,8 hPa 0,0 l/m 2 min 0 min 759 W/m 25,1 km/h (4 Bft) 100,00 %
07.05.2016 15:52 27,6 C 31,1 C 26,1 C 38 % 0 lf 1008,9 hPa 0,0 l/m 2 min 0 min 746 W/m 20,9 km/h (4 Bft) 100,00 %
07.05.2016 15:54 27,6 C 30,6 C 26,1 C 37 % 0 lf 1008,8 hPa 0,0 l/m 2 min 0 min 746 W/m 16,7 km/h (3 Bft) 100,00 %
07.05.2016 15:56 27,6 C 31,7 C 26,1 C 37 % 0 lf 1008,8 hPa 0,0 l/m 2 min 0 min 743 W/m 23,0 km/h (4 Bft) 97,87 %
07.05.2016 15:58 27,6 C 31,1 C 26,1 C 37 % 0 lf 1008,8 hPa 0,0 l/m 2 min 0 min 738 W/m 25,1 km/h (4 Bft) 95,74 %
07.05.2016 16:00 27,6 C 32,2 C 26,1 C 38 % 0 lf 1008,8 hPa 0,0 l/m 2 min 0 min 726 W/m 27,2 km/h (4 Bft) 97,87 %
07.05.2016 16:02 27,7 C 31,7 C 26,1 C 37 % 0 lf 1008,8 hPa 0,0 l/m 2 min 0 min 742 W/m 23,0 km/h (4 Bft) 100,00 %
07.05.2016 16:04 27,7 C 30,6 C 26,1 C 36 % 0 lf 1008,8 hPa 0,0 l/m 2 min 0 min 741 W/m 20,9 km/h (4 Bft) 100,00 %
07.05.2016 16:06 27,6 C 30,0 C 26,1 C 36 % 0 lf 1008,7 hPa 0,0 l/m 2 min 0 min 748 W/m 27,2 km/h (4 Bft) 95,65 %
07.05.2016 16:08 27,6 C 30,0 C 26,1 C 36 % 0 lf 1008,7 hPa 0,0 l/m 2 min 0 min 711 W/m 31,4 km/h (5 Bft) 100,00 %
07.05.2016 16:10 27,4 C 29,4 C 25,6 C 36 % 0 lf 1008,7 hPa 0,0 l/m 2 min 0 min 712 W/m 27,2 km/h (4 Bft) 100,00 %
07.05.2016 16:12 27,4 C 30,6 C 26,1 C 36 % 0 lf 1008,7 hPa 0,0 l/m 2 min 0 min 672 W/m 20,9 km/h (4 Bft) 95,74 %
07.05.2016 16:14 27,4 C 31,7 C 27,2 C 36 % 0 lf 1008,7 hPa 0,0 l/m 2 min 0 min 708 W/m 14,6 km/h (3 Bft) 100,00 %
07.05.2016 16:16 27,4 C 31,7 C 27,8 C 36 % 0 lf 1008,6 hPa 0,0 l/m 2 min 0 min 703 W/m 25,1 km/h (4 Bft) 100,00 %
07.05.2016 16:18 27,5 C 31,7 C 28,9 C 37 % 0 lf 1008,6 hPa 0,0 l/m 2 min 0 min 699 W/m 16,7 km/h (3 Bft) 97,83 %
07.05.2016 16:20 27,4 C 29,4 C 27,2 C 36 % 0 lf 1008,6 hPa 0,0 l/m 2 min 0 min 486 W/m 20,9 km/h (4 Bft) 100,00 %
07.05.2016 16:22 27,4 C 27,8 C 26,1 C 37 % 0 lf 1008,6 hPa 0,0 l/m 0 min 0 min 123 W/m 20,9 km/h (4 Bft) 95,74 %
07.05.2016 16:24 27,4 C 29,4 C 27,2 C 38 % 0 lf 1008,7 hPa 0,0 l/m 2 min 0 min 481 W/m 25,1 km/h (4 Bft) 95,74 %
07.05.2016 16:26 27,3 C 30,0 C 27,2 C 36 % 0 lf 1008,6 hPa 0,0 l/m 2 min 0 min 691 W/m 18,8 km/h (3 Bft) 100,00 %
07.05.2016 16:28 27,3 C 30,6 C 27,8 C 36 % 0 lf 1008,6 hPa 0,0 l/m 2 min 0 min 683 W/m 14,6 km/h (3 Bft) 95,74 %
07.05.2016 16:30 27,3 C 30,6 C 27,8 C 37 % 0 lf 1008,6 hPa 0,0 l/m 2 min 0 min 672 W/m 23,0 km/h (4 Bft) 97,83 %
07.05.2016 16:32 27,3 C 31,1 C 27,8 C 36 % 0 lf 1008,6 hPa 0,0 l/m 2 min 0 min 671 W/m 18,8 km/h (3 Bft) 97,87 %
07.05.2016 16:34 27,3 C 31,7 C 27,8 C 36 % 0 lf 1008,5 hPa 0,0 l/m 2 min 0 min 673 W/m 14,6 km/h (3 Bft) 97,87 %
07.05.2016 16:36 27,3 C 30,6 C 27,8 C 36 % 0 lf 1008,6 hPa 0,0 l/m 2 min 0 min 671 W/m 29,3 km/h (5 Bft) 97,87 %
07.05.2016 16:38 27,3 C 30,0 C 27,8 C 36 % 0 lf 1008,6 hPa 0,0 l/m 2 min 0 min 667 W/m 18,8 km/h (3 Bft) 89,36 %
07.05.2016 16:40 27,2 C 30,0 C 27,8 C 36 % 0 lf 1008,6 hPa 0,0 l/m 2 min 0 min 663 W/m 20,9 km/h (4 Bft) 95,74 %
07.05.2016 16:42 27,2 C 30,6 C 27,2 C 38 % 0 lf 1008,5 hPa 0,0 l/m 2 min 0 min 658 W/m 27,2 km/h (4 Bft) 95,65 %
07.05.2016 16:44 27,3 C 30,6 C 27,2 C 36 % 0 lf 1008,4 hPa 0,0 l/m 2 min 0 min 646 W/m 25,1 km/h (4 Bft) 100,00 %
07.05.2016 16:46 27,2 C 30,0 C 26,7 C 36 % 0 lf 1008,5 hPa 0,0 l/m 2 min 0 min 635 W/m 27,2 km/h (4 Bft) 95,74 %
07.05.2016 16:48 27,2 C 30,0 C 26,1 C 37 % 0 lf 1008,4 hPa 0,0 l/m 2 min 0 min 631 W/m 18,8 km/h (3 Bft) 97,87 %
07.05.2016 16:50 27,3 C 30,0 C 25,6 C 38 % 0 lf 1008,4 hPa 0,0 l/m 2 min 0 min 633 W/m 20,9 km/h (4 Bft) 93,62 %
07.05.2016 16:52 27,2 C 30,6 C 25,6 C 36 % 0 lf 1008,5 hPa 0,0 l/m 2 min 0 min 634 W/m 27,2 km/h (4 Bft) 93,48 %
07.05.2016 16:54 27,2 C 30,0 C 25,6 C 36 % 0 lf 1008,5 hPa 0,0 l/m 2 min 0 min 639 W/m 27,2 km/h (4 Bft) 95,74 %
07.05.2016 16:56 27,2 C 30,6 C 25,6 C 37 % 0 lf 1008,5 hPa 0,0 l/m 2 min 0 min 634 W/m 14,6 km/h (3 Bft) 93,62 %
07.05.2016 16:58 27,2 C 31,1 C 25,6 C 38 % 0 lf 1008,4 hPa 0,0 l/m 2 min 0 min 634 W/m 27,2 km/h (4 Bft) 97,87 %
07.05.2016 17:00 27,3 C 31,7 C 25,6 C 36 % 0 lf 1008,5 hPa 0,0 l/m 2 min 0 min 624 W/m 23,0 km/h (4 Bft) 95,74 %
07.05.2016 17:02 27,3 C 31,1 C 25,6 C 38 % 0 lf 1008,4 hPa 0,0 l/m 2 min 0 min 611 W/m 20,9 km/h (4 Bft) 95,74 %
07.05.2016 17:04 27,3 C 30,6 C 25,6 C 36 % 0 lf 1008,3 hPa 0,0 l/m 2 min 0 min 609 W/m 14,6 km/h (3 Bft) 97,83 %
07.05.2016 17:06 27,3 C 30,6 C 25,6 C 36 % 0 lf 1008,3 hPa 0,0 l/m 2 min 0 min 615 W/m 20,9 km/h (4 Bft) 97,87 %
07.05.2016 17:08 27,3 C 30,0 C 25,6 C 36 % 0 lf 1008,3 hPa 0,0 l/m 2 min 0 min 630 W/m 25,1 km/h (4 Bft) 95,74 %
07.05.2016 17:10 27,3 C 30,0 C 25,6 C 36 % 0 lf 1008,3 hPa 0,0 l/m 2 min 0 min 634 W/m 20,9 km/h (4 Bft) 95,74 %
07.05.2016 17:12 27,3 C 29,4 C 25,6 C 36 % 0 lf 1008,2 hPa 0,0 l/m 2 min 0 min 633 W/m 23,0 km/h (4 Bft) 97,87 %
07.05.2016 17:14 27,3 C 29,4 C 25,6 C 36 % 0 lf 1008,3 hPa 0,0 l/m 2 min 0 min 626 W/m 23,0 km/h (4 Bft) 95,74 %
07.05.2016 17:16 27,2 C 29,4 C 25,6 C 37 % 0 lf 1008,3 hPa 0,0 l/m 2 min 0 min 616 W/m 29,3 km/h (5 Bft) 95,65 %
07.05.2016 17:18 27,2 C 30,0 C 25,6 C 37 % 0 lf 1008,2 hPa 0,0 l/m 2 min 0 min 606 W/m 20,9 km/h (4 Bft) 93,62 %
07.05.2016 17:20 27,2 C 28,9 C 25,6 C 37 % 0 lf 1008,3 hPa 0,0 l/m 2 min 0 min 599 W/m 20,9 km/h (4 Bft) 95,74 %
07.05.2016 17:22 27,2 C 28,9 C 25,6 C 37 % 0 lf 1008,3 hPa 0,0 l/m 2 min 0 min 595 W/m 37,7 km/h (5 Bft) 93,62 %
07.05.2016 17:24 27,1 C 28,9 C 25,6 C 37 % 0 lf 1008,3 hPa 0,0 l/m 2 min 0 min 586 W/m 25,1 km/h (4 Bft) 93,62 %
07.05.2016 17:26 27,1 C 28,9 C 25,6 C 37 % 0 lf 1008,3 hPa 0,0 l/m 2 min 0 min 578 W/m 23,0 km/h (4 Bft) 95,74 %
07.05.2016 17:28 27,0 C 28,9 C 25,0 C 37 % 0 lf 1008,2 hPa 0,0 l/m 2 min 0 min 568 W/m 23,0 km/h (4 Bft) 93,48 %
07.05.2016 17:30 27,0 C 29,4 C 25,0 C 38 % 0 lf 1008,3 hPa 0,0 l/m 2 min 0 min 556 W/m 25,1 km/h (4 Bft) 97,87 %
07.05.2016 17:32 26,9 C 28,9 C 25,0 C 37 % 0 lf 1008,2 hPa 0,0 l/m 2 min 0 min 545 W/m 23,0 km/h (4 Bft) 91,49 %
07.05.2016 17:34 26,9 C 28,3 C 25,6 C 38 % 0 lf 1008,3 hPa 0,0 l/m 2 min 0 min 548 W/m 20,9 km/h (4 Bft) 93,62 %
07.05.2016 17:36 26,9 C 27,8 C 25,0 C 37 % 0 lf 1008,2 hPa 0,0 l/m 2 min 0 min 540 W/m 25,1 km/h (4 Bft) 91,49 %
07.05.2016 17:38 26,9 C 27,8 C 25,0 C 38 % 0 lf 1008,2 hPa 0,0 l/m 2 min 0 min 528 W/m 20,9 km/h (4 Bft) 89,36 %
07.05.2016 17:40 26,9 C 27,8 C 25,0 C 38 % 0 lf 1008,2 hPa 0,0 l/m 2 min 0 min 532 W/m 20,9 km/h (4 Bft) 91,30 %
07.05.2016 17:42 26,9 C 28,3 C 25,6 C 37 % 0 lf 1008,2 hPa 0,0 l/m 2 min 0 min 532 W/m 16,7 km/h (3 Bft) 93,62 %
07.05.2016 17:44 26,9 C 29,4 C 25,0 C 39 % 0 lf 1008,2 hPa 0,0 l/m 2 min 0 min 524 W/m 16,7 km/h (3 Bft) 95,74 %
07.05.2016 17:46 26,9 C 29,4 C 25,0 C 39 % 0 lf 1008,0 hPa 0,0 l/m 2 min 0 min 527 W/m 23,0 km/h (4 Bft) 91,49 %
07.05.2016 17:48 26,9 C 28,9 C 25,0 C 37 % 0 lf 1008,0 hPa 0,0 l/m 2 min 0 min 527 W/m 25,1 km/h (4 Bft) 95,74 %
07.05.2016 17:50 26,9 C 28,3 C 25,0 C 37 % 0 lf 1008,0 hPa 0,0 l/m 2 min 0 min 512 W/m 29,3 km/h (5 Bft) 91,49 %
07.05.2016 17:52 26,9 C 27,8 C 25,0 C 38 % 0 lf 1008,0 hPa 0,0 l/m 2 min 0 min 492 W/m 25,1 km/h (4 Bft) 91,30 %
07.05.2016 17:54 26,9 C 27,8 C 24,4 C 37 % 0 lf 1008,0 hPa 0,0 l/m 2 min 0 min 437 W/m 27,2 km/h (4 Bft) 95,74 %
07.05.2016 17:56 26,9 C 27,2 C 24,4 C 37 % 0 lf 1008,1 hPa 0,0 l/m 2 min 0 min 335 W/m 27,2 km/h (4 Bft) 93,62 %
07.05.2016 17:58 26,9 C 27,2 C 24,4 C 37 % 0 lf 1008,1 hPa 0,0 l/m 2 min 0 min 440 W/m 29,3 km/h (5 Bft) 95,74 %
07.05.2016 18:00 26,8 C 27,2 C 24,4 C 37 % 0 lf 1008,1 hPa 0,0 l/m 2 min 0 min 440 W/m 18,8 km/h (3 Bft) 93,62 %
07.05.2016 18:02 26,8 C 26,7 C 24,4 C 37 % 0 lf 1008,1 hPa 0,0 l/m 2 min 0 min 436 W/m 23,0 km/h (4 Bft) 93,62 %
07.05.2016 18:04 26,8 C 27,2 C 24,4 C 38 % 0 lf 1008,1 hPa 0,0 l/m 2 min 0 min 434 W/m 20,9 km/h (4 Bft) 94,44 %
07.05.2016 18:06 26,7 C 26,7 C 24,4 C 38 % 0 lf 1008,2 hPa 0,0 l/m 2 min 0 min 433 W/m 27,2 km/h (4 Bft) 93,10 %
07.05.2016 18:08 26,7 C 26,7 C 24,4 C 37 % 0 lf 1008,1 hPa 0,0 l/m 2 min 0 min 430 W/m 29,3 km/h (5 Bft) 97,87 %
07.05.2016 18:10 26,6 C 26,7 C 24,4 C 38 % 0 lf 1008,1 hPa 0,0 l/m 2 min 0 min 421 W/m 23,0 km/h (4 Bft) 95,74 %
07.05.2016 18:12 26,5 C 26,7 C 24,4 C 38 % 0 lf 1008,0 hPa 0,0 l/m 2 min 0 min 418 W/m 18,8 km/h (3 Bft) 100,00 %
07.05.2016 18:14 26,5 C 26,7 C 24,4 C 38 % 0 lf 1008,0 hPa 0,0 l/m 2 min 0 min 407 W/m 16,7 km/h (3 Bft) 97,87 %
07.05.2016 18:16 26,4 C 26,7 C 24,4 C 39 % 0 lf 1008,1 hPa 0,0 l/m 2 min 0 min 396 W/m 18,8 km/h (3 Bft) 97,83 %
07.05.2016 18:18 26,4 C 26,7 C 23,9 C 39 % 0 lf 1008,1 hPa 0,0 l/m 2 min 0 min 387 W/m 18,8 km/h (3 Bft) 97,87 %
07.05.2016 18:20 26,4 C 26,7 C 23,9 C 40 % 0 lf 1008,0 hPa 0,0 l/m 2 min 0 min 371 W/m 16,7 km/h (3 Bft) 95,74 %
07.05.2016 18:22 26,3 C 26,1 C 23,9 C 40 % 0 lf 1008,0 hPa 0,0 l/m 2 min 0 min 355 W/m 14,6 km/h (3 Bft) 97,87 %
07.05.2016 18:24 26,3 C 26,1 C 23,9 C 39 % 0 lf 1008,0 hPa 0,0 l/m 2 min 0 min 341 W/m 23,0 km/h (4 Bft) 95,74 %
07.05.2016 18:26 26,2 C 26,1 C 23,9 C 39 % 0 lf 1007,9 hPa 0,0 l/m 2 min 0 min 343 W/m 20,9 km/h (4 Bft) 93,48 %
07.05.2016 18:28 26,2 C 26,1 C 23,9 C 40 % 0 lf 1008,0 hPa 0,0 l/m 2 min 0 min 321 W/m 16,7 km/h (3 Bft) 95,74 %
07.05.2016 18:30 26,2 C 26,1 C 23,3 C 40 % 0 lf 1007,9 hPa 0,0 l/m 2 min 0 min 326 W/m 16,7 km/h (3 Bft) 97,87 %
07.05.2016 18:32 26,1 C 26,1 C 23,3 C 39 % 0 lf 1007,9 hPa 0,0 l/m 2 min 0 min 338 W/m 12,6 km/h (3 Bft) 97,87 %
07.05.2016 18:34 26,1 C 26,1 C 23,3 C 39 % 0 lf 1008,0 hPa 0,0 l/m 2 min 0 min 332 W/m 12,6 km/h (3 Bft) 97,87 %
07.05.2016 18:36 26,0 C 26,1 C 23,9 C 40 % 0 lf 1007,9 hPa 0,0 l/m 2 min 0 min 325 W/m 14,6 km/h (3 Bft) 91,49 %
07.05.2016 18:38 25,9 C 26,1 C 23,9 C 40 % 0 lf 1007,9 hPa 0,0 l/m 2 min 0 min 330 W/m 18,8 km/h (3 Bft) 95,65 %
07.05.2016 18:40 25,9 C 26,1 C 23,9 C 40 % 0 lf 1007,9 hPa 0,0 l/m 2 min 0 min 329 W/m 18,8 km/h (3 Bft) 97,87 %
07.05.2016 18:42 25,9 C 26,1 C 23,9 C 41 % 0 lf 1008,0 hPa 0,0 l/m 2 min 0 min 326 W/m 23,0 km/h (4 Bft) 95,74 %
07.05.2016 18:44 25,8 C 26,1 C 23,9 C 41 % 0 lf 1008,0 hPa 0,0 l/m 2 min 0 min 316 W/m 20,9 km/h (4 Bft) 97,87 %
07.05.2016 18:46 25,8 C 26,1 C 23,9 C 40 % 0 lf 1008,0 hPa 0,0 l/m 2 min 0 min 316 W/m 18,8 km/h (3 Bft) 93,62 %
07.05.2016 18:48 25,8 C 26,1 C 23,3 C 40 % 0 lf 1008,0 hPa 0,0 l/m 2 min 0 min 311 W/m 16,7 km/h (3 Bft) 97,87 %
07.05.2016 18:50 25,8 C 26,1 C 23,3 C 40 % 0 lf 1008,0 hPa 0,0 l/m 2 min 0 min 298 W/m 10,5 km/h (2 Bft) 97,83 %
07.05.2016 18:52 25,8 C 26,1 C 23,3 C 39 % 0 lf 1008,0 hPa 0,0 l/m 2 min 0 min 291 W/m 18,8 km/h (3 Bft) 97,87 %
07.05.2016 18:54 25,8 C 26,1 C 23,3 C 39 % 0 lf 1008,0 hPa 0,0 l/m 2 min 0 min 282 W/m 23,0 km/h (4 Bft) 97,87 %
07.05.2016 18:56 25,8 C 26,1 C 23,3 C 40 % 0 lf 1008,0 hPa 0,0 l/m 2 min 0 min 275 W/m 16,7 km/h (3 Bft) 97,87 %
07.05.2016 18:58 25,8 C 26,1 C 23,3 C 39 % 0 lf 1008,0 hPa 0,0 l/m 2 min 0 min 263 W/m 14,6 km/h (3 Bft) 95,74 %
07.05.2016 19:00 25,7 C 26,1 C 23,3 C 40 % 0 lf 1008,0 hPa 0,0 l/m 2 min 0 min 256 W/m 12,6 km/h (3 Bft) 97,87 %
07.05.2016 19:02 25,7 C 25,6 C 23,3 C 41 % 0 lf 1008,0 hPa 0,0 l/m 2 min 0 min 248 W/m 16,7 km/h (3 Bft) 97,83 %
07.05.2016 19:04 25,7 C 25,6 C 23,3 C 41 % 0 lf 1008,0 hPa 0,0 l/m 2 min 0 min 244 W/m 14,6 km/h (3 Bft) 100,00 %
07.05.2016 19:06 25,7 C 25,6 C 23,3 C 41 % 0 lf 1007,9 hPa 0,0 l/m 2 min 0 min 234 W/m 10,5 km/h (2 Bft) 100,00 %
07.05.2016 19:08 25,7 C 25,6 C 23,3 C 41 % 0 lf 1008,0 hPa 0,0 l/m 2 min 0 min 223 W/m 14,6 km/h (3 Bft) 97,87 %
07.05.2016 19:10 25,7 C 25,6 C 22,8 C 41 % 0 lf 1007,9 hPa 0,0 l/m 2 min 0 min 216 W/m 10,5 km/h (2 Bft) 97,87 %
07.05.2016 19:12 25,6 C 25,6 C 22,8 C 41 % 0 lf 1008,0 hPa 0,0 l/m 2 min 0 min 211 W/m 14,6 km/h (3 Bft) 97,87 %
07.05.2016 19:14 25,6 C 25,6 C 22,8 C 41 % 0 lf 1007,9 hPa 0,0 l/m 2 min 0 min 205 W/m 14,6 km/h (3 Bft) 100,00 %
07.05.2016 19:16 25,6 C 25,6 C 22,8 C 41 % 0 lf 1007,9 hPa 0,0 l/m 2 min 0 min 198 W/m 10,5 km/h (2 Bft) 97,87 %
07.05.2016 19:18 25,6 C 25,6 C 22,8 C 41 % 0 lf 1007,9 hPa 0,0 l/m 2 min 0 min 190 W/m 10,5 km/h (2 Bft) 100,00 %
07.05.2016 19:20 25,6 C 25,6 C 22,8 C 42 % 0 lf 1007,9 hPa 0,0 l/m 2 min 0 min 182 W/m 10,5 km/h (2 Bft) 97,87 %
07.05.2016 19:22 25,5 C 25,6 C 22,8 C 41 % 0 lf 1007,9 hPa 0,0 l/m 2 min 0 min 175 W/m 12,6 km/h (3 Bft) 100,00 %
07.05.2016 19:24 25,5 C 25,6 C 22,8 C 40 % 0 lf 1007,9 hPa 0,0 l/m 2 min 0 min 167 W/m 10,5 km/h (2 Bft) 100,00 %
07.05.2016 19:26 25,4 C 25,0 C 22,8 C 41 % 0 lf 1007,9 hPa 0,0 l/m 2 min 0 min 157 W/m 8,4 km/h (2 Bft) 100,00 %
07.05.2016 19:28 25,4 C 25,0 C 22,8 C 41 % 0 lf 1007,9 hPa 0,0 l/m 2 min 0 min 154 W/m 6,3 km/h (2 Bft) 89,36 %
07.05.2016 19:30 25,4 C 25,0 C 22,2 C 42 % 0 lf 1007,9 hPa 0,0 l/m 2 min 0 min 150 W/m 14,6 km/h (3 Bft) 97,87 %
07.05.2016 19:32 25,4 C 25,0 C 22,2 C 42 % 0 lf 1007,9 hPa 0,0 l/m 2 min 0 min 144 W/m 10,5 km/h (2 Bft) 95,74 %
07.05.2016 19:34 25,3 C 25,0 C 22,2 C 41 % 0 lf 1007,9 hPa 0,0 l/m 0 min 0 min 87 W/m 10,5 km/h (2 Bft) 97,87 %
07.05.2016 19:36 25,3 C 25,0 C 21,7 C 41 % 0 lf 1007,9 hPa 0,0 l/m 0 min 0 min 75 W/m 16,7 km/h (3 Bft) 97,83 %
07.05.2016 19:38 25,2 C 25,0 C 21,7 C 40 % 0 lf 1007,9 hPa 0,0 l/m 2 min 0 min 108 W/m 14,6 km/h (3 Bft) 97,87 %
07.05.2016 19:40 25,2 C 25,0 C 21,7 C 40 % 0 lf 1007,9 hPa 0,0 l/m 2 min 0 min 125 W/m 12,6 km/h (3 Bft) 93,62 %
07.05.2016 19:42 25,2 C 25,0 C 21,7 C 41 % 0 lf 1008,0 hPa 0,0 l/m 2 min 0 min 120 W/m 6,3 km/h (2 Bft) 93,62 %
07.05.2016 19:44 25,1 C 25,0 C 21,7 C 41 % 0 lf 1007,9 hPa 0,0 l/m 2 min 0 min 117 W/m 14,6 km/h (3 Bft) 91,49 %
07.05.2016 19:46 25,1 C 25,0 C 21,7 C 41 % 0 lf 1007,9 hPa 0,0 l/m 2 min 0 min 112 W/m 12,6 km/h (3 Bft) 95,74 %
07.05.2016 19:48 25,1 C 24,4 C 21,7 C 41 % 0 lf 1008,0 hPa 0,0 l/m 2 min 0 min 107 W/m 8,4 km/h (2 Bft) 97,83 %
07.05.2016 19:50 25,1 C 25,0 C 21,7 C 41 % 0 lf 1008,0 hPa 0,0 l/m 2 min 0 min 101 W/m 8,4 km/h (2 Bft) 97,87 %
07.05.2016 19:52 25,0 C 24,4 C 21,7 C 42 % 0 lf 1007,9 hPa 0,0 l/m 2 min 0 min 95 W/m 8,4 km/h (2 Bft) 95,74 %
07.05.2016 19:54 25,0 C 24,4 C 21,1 C 42 % 0 lf 1008,0 hPa 0,0 l/m 2 min 0 min 90 W/m 8,4 km/h (2 Bft) 97,87 %
07.05.2016 19:56 24,9 C 24,4 C 21,1 C 42 % 0 lf 1008,0 hPa 0,0 l/m 2 min 0 min 84 W/m 8,4 km/h (2 Bft) 97,87 %
07.05.2016 19:58 24,9 C 24,4 C 21,1 C 43 % 0 lf 1008,0 hPa 0,0 l/m 2 min 0 min 80 W/m 8,4 km/h (2 Bft) 97,87 %
07.05.2016 20:00 24,9 C 24,4 C 20,6 C 43 % 0 lf 1007,9 hPa 0,0 l/m 2 min 0 min 76 W/m 10,5 km/h (2 Bft) 93,48 %
07.05.2016 20:02 24,8 C 23,9 C 20,6 C 43 % 0 lf 1007,9 hPa 0,0 l/m 2 min 0 min 72 W/m 6,3 km/h (2 Bft) 95,74 %
07.05.2016 20:04 24,8 C 23,9 C 20,6 C 43 % 0 lf 1008,0 hPa 0,0 l/m 0 min 0 min 68 W/m 8,4 km/h (2 Bft) 97,87 %
07.05.2016 20:06 24,8 C 23,9 C 20,0 C 43 % 0 lf 1008,0 hPa 0,0 l/m 0 min 0 min 64 W/m 8,4 km/h (2 Bft) 93,62 %
07.05.2016 20:08 24,7 C 23,9 C 20,0 C 43 % 0 lf 1008,0 hPa 0,0 l/m 0 min 0 min 61 W/m 8,4 km/h (2 Bft) 91,49 %
07.05.2016 20:10 24,7 C 23,9 C 20,0 C 44 % 0 lf 1008,0 hPa 0,0 l/m 0 min 0 min 56 W/m 8,4 km/h (2 Bft) 97,87 %
07.05.2016 20:12 24,7 C 23,9 C 20,0 C 43 % 0 lf 1007,9 hPa 0,0 l/m 0 min 0 min 53 W/m 8,4 km/h (2 Bft) 97,83 %
07.05.2016 20:14 24,6 C 23,9 C 20,0 C 44 % 0 lf 1008,1 hPa 0,0 l/m 0 min 0 min 49 W/m 8,4 km/h (2 Bft) 95,74 %
07.05.2016 20:16 24,6 C 23,9 C 19,4 C 44 % 0 lf 1008,1 hPa 0,0 l/m 0 min 0 min 46 W/m 8,4 km/h (2 Bft) 93,18 %
07.05.2016 20:18 24,6 C 23,9 C 19,4 C 43 % 0 lf 1008,1 hPa 0,0 l/m 0 min 0 min 43 W/m 6,3 km/h (2 Bft) 95,74 %
07.05.2016 20:20 24,5 C 23,9 C 19,4 C 44 % 0 lf 1008,1 hPa 0,0 l/m 0 min 0 min 40 W/m 6,3 km/h (2 Bft) 97,87 %
07.05.2016 20:22 24,4 C 23,3 C 19,4 C 44 % 0 lf 1008,2 hPa 0,0 l/m 0 min 0 min 37 W/m 6,3 km/h (2 Bft) 97,87 %
07.05.2016 20:24 24,4 C 23,3 C 19,4 C 44 % 0 lf 1008,1 hPa 0,0 l/m 0 min 0 min 34 W/m 6,3 km/h (2 Bft) 95,65 %
07.05.2016 20:26 24,4 C 23,3 C 18,9 C 44 % 0 lf 1008,2 hPa 0,0 l/m 0 min 0 min 32 W/m 6,3 km/h (2 Bft) 97,87 %
07.05.2016 20:28 24,3 C 23,3 C 18,9 C 45 % 0 lf 1008,2 hPa 0,0 l/m 0 min 0 min 29 W/m 6,3 km/h (2 Bft) 93,62 %
07.05.2016 20:30 24,3 C 22,8 C 18,9 C 45 % 0 lf 1008,2 hPa 0,0 l/m 0 min 0 min 28 W/m 6,3 km/h (2 Bft) 97,87 %
07.05.2016 20:32 24,2 C 22,8 C 18,9 C 45 % 0 lf 1008,2 hPa 0,0 l/m 0 min 0 min 26 W/m 8,4 km/h (2 Bft) 95,74 %
07.05.2016 20:34 24,2 C 22,8 C 18,9 C 45 % 0 lf 1008,2 hPa 0,0 l/m 0 min 0 min 25 W/m 4,2 km/h (1 Bft) 93,62 %
07.05.2016 20:36 24,1 C 22,8 C 18,9 C 45 % 0 lf 1008,2 hPa 0,0 l/m 0 min 0 min 24 W/m 6,3 km/h (2 Bft) 86,96 %
07.05.2016 20:38 24,1 C 22,8 C 18,3 C 45 % 0 lf 1008,3 hPa 0,0 l/m 0 min 0 min 22 W/m 6,3 km/h (2 Bft) 89,36 %
07.05.2016 20:40 24,0 C 22,8 C 18,3 C 46 % 0 lf 1008,3 hPa 0,0 l/m 0 min 0 min 21 W/m 6,3 km/h (2 Bft) 95,74 %
07.05.2016 20:42 23,9 C 22,2 C 18,3 C 46 % 0 lf 1008,2 hPa 0,0 l/m 0 min 0 min 20 W/m 6,3 km/h (2 Bft) 95,74 %
07.05.2016 20:44 23,9 C 22,2 C 17,8 C 46 % 0 lf 1008,2 hPa 0,0 l/m 0 min 0 min 19 W/m 8,4 km/h (2 Bft) 95,74 %
07.05.2016 20:46 23,8 C 22,2 C 17,8 C 46 % 0 lf 1008,3 hPa 0,0 l/m 0 min 0 min 18 W/m 6,3 km/h (2 Bft) 95,74 %
07.05.2016 20:48 23,7 C 22,2 C 17,8 C 46 % 0 lf 1008,2 hPa 0,0 l/m 0 min 0 min 17 W/m 4,2 km/h (1 Bft) 95,65 %
07.05.2016 20:50 23,7 C 22,2 C 17,8 C 46 % 0 lf 1008,2 hPa 0,0 l/m 0 min 0 min 16 W/m 6,3 km/h (2 Bft) 91,49 %
07.05.2016 20:52 23,6 C 22,2 C 17,8 C 46 % 0 lf 1008,2 hPa 0,0 l/m 0 min 0 min 14 W/m 8,4 km/h (2 Bft) 95,74 %
07.05.2016 20:54 23,6 C 22,2 C 17,8 C 46 % 0 lf 1008,3 hPa 0,0 l/m 0 min 0 min 14 W/m 6,3 km/h (2 Bft) 93,62 %
07.05.2016 20:56 23,4 C 22,2 C 17,2 C 46 % 0 lf 1008,3 hPa 0,0 l/m 0 min 0 min 12 W/m 6,3 km/h (2 Bft) 89,36 %
07.05.2016 20:58 23,4 C 21,7 C 17,2 C 46 % 0 lf 1008,3 hPa 0,0 l/m 0 min 0 min 11 W/m 4,2 km/h (1 Bft) 93,62 %
07.05.2016 21:00 23,3 C 21,7 C 17,2 C 46 % 0 lf 1008,3 hPa 0,0 l/m 0 min 0 min 10 W/m 6,3 km/h (2 Bft) 91,30 %
07.05.2016 21:02 23,3 C 21,7 C 17,2 C 46 % 0 lf 1008,3 hPa 0,0 l/m 0 min 0 min 9 W/m 6,3 km/h (2 Bft) 93,62 %
07.05.2016 21:04 23,2 C 21,1 C 17,2 C 47 % 0 lf 1008,3 hPa 0,0 l/m 0 min 0 min 8 W/m 4,2 km/h (1 Bft) 93,62 %
07.05.2016 21:06 23,1 C 21,1 C 16,7 C 47 % 0 lf 1008,3 hPa 0,0 l/m 0 min 0 min 7 W/m 4,2 km/h (1 Bft) 91,49 %
07.05.2016 21:08 23,1 C 20,6 C 16,7 C 47 % 0 lf 1008,3 hPa 0,0 l/m 0 min 0 min 5 W/m 6,3 km/h (2 Bft) 91,49 %
07.05.2016 21:10 22,9 C 20,6 C 16,7 C 48 % 0 lf 1008,3 hPa 0,0 l/m 0 min 0 min 5 W/m 6,3 km/h (2 Bft) 93,62 %
07.05.2016 21:12 22,9 C 20,6 C 16,7 C 48 % 0 lf 1008,4 hPa 0,0 l/m 0 min 0 min 5 W/m 4,2 km/h (1 Bft) 95,65 %
07.05.2016 21:14 22,8 C 21,1 C 16,7 C 48 % 0 lf 1008,3 hPa 0,0 l/m 0 min 0 min 3 W/m 4,2 km/h (1 Bft) 95,74 %
07.05.2016 21:16 22,7 C 21,1 C 16,7 C 48 % 0 lf 1008,4 hPa 0,0 l/m 0 min 0 min 0 W/m 6,3 km/h (2 Bft) 95,74 %
07.05.2016 21:18 22,6 C 20,6 C 16,7 C 49 % 0 lf 1008,4 hPa 0,0 l/m 0 min 0 min 0 W/m 4,2 km/h (1 Bft) 95,74 %
07.05.2016 21:20 22,6 C 20,6 C 16,7 C 49 % 0 lf 1008,4 hPa 0,0 l/m 0 min 0 min 0 W/m 4,2 km/h (1 Bft) 97,87 %
07.05.2016 21:22 22,4 C 20,6 C 16,7 C 49 % 0 lf 1008,5 hPa 0,0 l/m 0 min 0 min 0 W/m 8,4 km/h (2 Bft) 97,87 %
07.05.2016 21:24 22,4 C 20,0 C 16,7 C 50 % 0 lf 1008,4 hPa 0,0 l/m 0 min 0 min 0 W/m 6,3 km/h (2 Bft) 97,83 %
07.05.2016 21:26 22,3 C 20,0 C 16,7 C 50 % 0 lf 1008,5 hPa 0,0 l/m 0 min 0 min 0 W/m 6,3 km/h (2 Bft) 97,87 %
07.05.2016 21:28 22,2 C 20,0 C 16,1 C 50 % 0 lf 1008,5 hPa 0,0 l/m 0 min 0 min 0 W/m 4,2 km/h (1 Bft) 97,87 %
07.05.2016 21:30 22,1 C 20,0 C 16,1 C 50 % 0 lf 1008,6 hPa 0,0 l/m 0 min 0 min 0 W/m 4,2 km/h (1 Bft) 95,74 %
07.05.2016 21:32 22,0 C 19,4 C 16,1 C 50 % 0 lf 1008,5 hPa 0,0 l/m 0 min 0 min 0 W/m 6,3 km/h (2 Bft) 97,87 %
07.05.2016 21:34 21,9 C 19,4 C 16,1 C 51 % 0 lf 1008,6 hPa 0,0 l/m 0 min 0 min 0 W/m 4,2 km/h (1 Bft) 95,65 %
07.05.2016 21:36 21,8 C 18,9 C 16,1 C 51 % 0 lf 1008,6 hPa 0,0 l/m 0 min 0 min 0 W/m 4,2 km/h (1 Bft) 97,87 %
07.05.2016 21:38 21,7 C 18,9 C 16,1 C 51 % 0 lf 1008,6 hPa 0,0 l/m 0 min 0 min 0 W/m 4,2 km/h (1 Bft) 97,87 %
07.05.2016 21:40 21,6 C 18,9 C 16,1 C 52 % 0 lf 1008,6 hPa 0,0 l/m 0 min 0 min 0 W/m 2,1 km/h (1 Bft) 97,87 %
07.05.2016 21:42 21,6 C 18,9 C 16,1 C 53 % 0 lf 1008,6 hPa 0,0 l/m 0 min 0 min 0 W/m 4,2 km/h (1 Bft) 97,87 %
07.05.2016 21:44 21,4 C 18,9 C 15,6 C 54 % 0 lf 1008,6 hPa 0,0 l/m 0 min 0 min 0 W/m 4,2 km/h (1 Bft) 93,62 %
07.05.2016 21:46 21,3 C 18,9 C 15,6 C 54 % 0 lf 1008,7 hPa 0,0 l/m 0 min 0 min 0 W/m 4,2 km/h (1 Bft) 97,83 %
07.05.2016 21:48 21,3 C 18,3 C 15,6 C 54 % 0 lf 1008,7 hPa 0,0 l/m 0 min 0 min 0 W/m 6,3 km/h (2 Bft) 97,87 %
07.05.2016 21:50 21,2 C 18,3 C 15,6 C 54 % 0 lf 1008,6 hPa 0,0 l/m 0 min 0 min 0 W/m 4,2 km/h (1 Bft) 97,87 %
07.05.2016 21:52 21,1 C 18,3 C 15,6 C 54 % 0 lf 1008,7 hPa 0,0 l/m 0 min 0 min 0 W/m 4,2 km/h (1 Bft) 97,87 %
07.05.2016 21:54 21,0 C 18,3 C 15,6 C 54 % 0 lf 1008,6 hPa 0,0 l/m 0 min 0 min 0 W/m 2,1 km/h (1 Bft) 100,00 %
07.05.2016 21:56 20,9 C 18,3 C 15,6 C 54 % 0 lf 1008,7 hPa 0,0 l/m 0 min 0 min 0 W/m 4,2 km/h (1 Bft) 100,00 %
07.05.2016 21:58 20,8 C 18,3 C 15,6 C 54 % 0 lf 1008,7 hPa 0,0 l/m 0 min 0 min 0 W/m 4,2 km/h (1 Bft) 97,83 %
07.05.2016 22:00 20,7 C 18,3 C 15,6 C 55 % 0 lf 1008,7 hPa 0,0 l/m 0 min 0 min 0 W/m 4,2 km/h (1 Bft) 93,62 %
07.05.2016 22:02 20,6 C 17,8 C 15,0 C 55 % 0 lf 1008,7 hPa 0,0 l/m 0 min 0 min 0 W/m 4,2 km/h (1 Bft) 97,87 %
07.05.2016 22:04 20,5 C 17,8 C 15,0 C 56 % 0 lf 1008,7 hPa 0,0 l/m 0 min 0 min 0 W/m 2,1 km/h (1 Bft) 97,87 %
07.05.2016 22:06 20,4 C 17,8 C 15,0 C 56 % 0 lf 1008,7 hPa 0,0 l/m 0 min 0 min 0 W/m 4,2 km/h (1 Bft) 100,00 %
07.05.2016 22:08 20,3 C 17,8 C 15,0 C 57 % 0 lf 1008,7 hPa 0,0 l/m 0 min 0 min 0 W/m 4,2 km/h (1 Bft) 95,74 %
07.05.2016 22:10 20,2 C 17,8 C 15,0 C 57 % 0 lf 1008,7 hPa 0,0 l/m 0 min 0 min 0 W/m 4,2 km/h (1 Bft) 97,83 %
07.05.2016 22:12 20,1 C 17,8 C 15,0 C 57 % 0 lf 1008,7 hPa 0,0 l/m 0 min 0 min 0 W/m 6,3 km/h (2 Bft) 97,87 %
07.05.2016 22:14 20,0 C 17,8 C 15,0 C 57 % 0 lf 1008,7 hPa 0,0 l/m 0 min 0 min 0 W/m 6,3 km/h (2 Bft) 97,87 %
07.05.2016 22:16 19,9 C 17,8 C 15,0 C 57 % 0 lf 1008,7 hPa 0,0 l/m 0 min 0 min 0 W/m 4,2 km/h (1 Bft) 97,87 %
07.05.2016 22:18 19,8 C 17,8 C 15,0 C 57 % 0 lf 1008,7 hPa 0,0 l/m 0 min 0 min 0 W/m 6,3 km/h (2 Bft) 95,74 %
07.05.2016 22:20 19,7 C 17,8 C 15,0 C 57 % 0 lf 1008,7 hPa 0,0 l/m 0 min 0 min 0 W/m 6,3 km/h (2 Bft) 95,74 %
07.05.2016 22:22 19,6 C 18,3 C 15,0 C 57 % 0 lf 1008,8 hPa 0,0 l/m 0 min 0 min 0 W/m 8,4 km/h (2 Bft) 95,65 %
07.05.2016 22:24 19,5 C 18,3 C 15,0 C 57 % 0 lf 1008,7 hPa 0,0 l/m 0 min 0 min 0 W/m 8,4 km/h (2 Bft) 97,87 %
07.05.2016 22:26 19,4 C 18,3 C 15,0 C 56 % 0 lf 1008,7 hPa 0,0 l/m 0 min 0 min 0 W/m 8,4 km/h (2 Bft) 93,62 %
07.05.2016 22:28 19,4 C 18,3 C 15,0 C 56 % 0 lf 1008,7 hPa 0,0 l/m 0 min 0 min 0 W/m 6,3 km/h (2 Bft) 95,74 %
07.05.2016 22:30 19,3 C 18,3 C 15,0 C 56 % 0 lf 1008,8 hPa 0,0 l/m 0 min 0 min 0 W/m 6,3 km/h (2 Bft) 95,74 %
07.05.2016 22:32 19,3 C 18,3 C 15,0 C 57 % 0 lf 1008,7 hPa 0,0 l/m 0 min 0 min 0 W/m 10,5 km/h (2 Bft) 97,87 %
07.05.2016 22:34 19,2 C 18,3 C 15,0 C 57 % 0 lf 1008,7 hPa 0,0 l/m 0 min 0 min 0 W/m 8,4 km/h (2 Bft) 95,65 %
07.05.2016 22:36 19,2 C 18,3 C 15,0 C 57 % 0 lf 1008,8 hPa 0,0 l/m 0 min 0 min 0 W/m 8,4 km/h (2 Bft) 95,74 %
07.05.2016 22:38 19,1 C 18,9 C 15,0 C 56 % 0 lf 1008,8 hPa 0,0 l/m 0 min 0 min 0 W/m 8,4 km/h (2 Bft) 91,49 %
07.05.2016 22:40 19,1 C 18,9 C 15,0 C 57 % 0 lf 1008,8 hPa 0,0 l/m 0 min 0 min 0 W/m 10,5 km/h (2 Bft) 95,74 %
07.05.2016 22:42 19,0 C 18,9 C 15,0 C 57 % 0 lf 1008,7 hPa 0,0 l/m 0 min 0 min 0 W/m 10,5 km/h (2 Bft) 95,74 %
07.05.2016 22:44 18,9 C 18,3 C 15,0 C 57 % 0 lf 1008,7 hPa 0,0 l/m 0 min 0 min 0 W/m 8,4 km/h (2 Bft) 95,74 %
07.05.2016 22:46 18,9 C 18,3 C 15,0 C 57 % 0 lf 1008,8 hPa 0,0 l/m 0 min 0 min 0 W/m 8,4 km/h (2 Bft) 93,48 %
07.05.2016 22:48 18,9 C 18,9 C 15,0 C 56 % 0 lf 1008,8 hPa 0,0 l/m 0 min 0 min 0 W/m 6,3 km/h (2 Bft) 91,49 %
07.05.2016 22:50 18,8 C 18,3 C 14,4 C 56 % 0 lf 1008,8 hPa 0,0 l/m 0 min 0 min 0 W/m 6,3 km/h (2 Bft) 95,74 %
07.05.2016 22:52 18,8 C 18,3 C 14,4 C 56 % 0 lf 1008,8 hPa 0,0 l/m 0 min 0 min 0 W/m 8,4 km/h (2 Bft) 95,74 %
07.05.2016 22:54 18,8 C 18,3 C 14,4 C 56 % 0 lf 1008,8 hPa 0,0 l/m 0 min 0 min 0 W/m 8,4 km/h (2 Bft) 93,62 %
07.05.2016 22:56 18,7 C 18,3 C 14,4 C 57 % 0 lf 1008,8 hPa 0,0 l/m 0 min 0 min 0 W/m 8,4 km/h (2 Bft) 93,62 %
07.05.2016 22:58 18,7 C 18,3 C 14,4 C 57 % 0 lf 1008,8 hPa 0,0 l/m 0 min 0 min 0 W/m 8,4 km/h (2 Bft) 95,65 %
07.05.2016 23:00 18,7 C 18,9 C 14,4 C 57 % 0 lf 1008,8 hPa 0,0 l/m 0 min 0 min 0 W/m 6,3 km/h (2 Bft) 95,74 %
07.05.2016 23:02 18,7 C 18,3 C 14,4 C 57 % 0 lf 1008,8 hPa 0,0 l/m 0 min 0 min 0 W/m 4,2 km/h (1 Bft) 95,74 %
07.05.2016 23:04 18,7 C 18,3 C 14,4 C 57 % 0 lf 1008,9 hPa 0,0 l/m 0 min 0 min 0 W/m 6,3 km/h (2 Bft) 97,87 %
07.05.2016 23:06 18,6 C 18,3 C 14,4 C 57 % 0 lf 1008,9 hPa 0,0 l/m 0 min 0 min 0 W/m 6,3 km/h (2 Bft) 93,62 %
07.05.2016 23:08 18,6 C 18,3 C 14,4 C 57 % 0 lf 1008,9 hPa 0,0 l/m 0 min 0 min 0 W/m 6,3 km/h (2 Bft) 100,00 %
07.05.2016 23:10 18,6 C 18,3 C 14,4 C 57 % 0 lf 1008,9 hPa 0,0 l/m 0 min 0 min 0 W/m 6,3 km/h (2 Bft) 93,62 %
07.05.2016 23:12 18,6 C 18,3 C 14,4 C 57 % 0 lf 1008,9 hPa 0,0 l/m 0 min 0 min 0 W/m 4,2 km/h (1 Bft) 95,74 %
07.05.2016 23:14 18,6 C 17,8 C 14,4 C 57 % 0 lf 1009,0 hPa 0,0 l/m 0 min 0 min 0 W/m 4,2 km/h (1 Bft) 97,87 %
07.05.2016 23:16 18,5 C 17,8 C 14,4 C 57 % 0 lf 1008,9 hPa 0,0 l/m 0 min 0 min 0 W/m 6,3 km/h (2 Bft) 97,87 %
07.05.2016 23:18 18,5 C 17,8 C 14,4 C 58 % 0 lf 1009,0 hPa 0,0 l/m 0 min 0 min 0 W/m 4,2 km/h (1 Bft) 95,74 %
07.05.2016 23:20 18,5 C 17,8 C 14,4 C 58 % 0 lf 1009,0 hPa 0,0 l/m 0 min 0 min 0 W/m 4,2 km/h (1 Bft) 97,83 %
07.05.2016 23:22 18,4 C 17,8 C 14,4 C 58 % 0 lf 1009,1 hPa 0,0 l/m 0 min 0 min 0 W/m 4,2 km/h (1 Bft) 95,74 %
07.05.2016 23:24 18,4 C 17,2 C 14,4 C 58 % 0 lf 1009,1 hPa 0,0 l/m 0 min 0 min 0 W/m 4,2 km/h (1 Bft) 95,74 %
07.05.2016 23:26 18,4 C 17,2 C 13,9 C 58 % 0 lf 1009,1 hPa 0,0 l/m 0 min 0 min 0 W/m 4,2 km/h (1 Bft) 95,74 %
07.05.2016 23:28 18,3 C 17,2 C 13,9 C 59 % 0 lf 1009,1 hPa 0,0 l/m 0 min 0 min 0 W/m 4,2 km/h (1 Bft) 100,00 %
07.05.2016 23:30 18,3 C 17,2 C 13,9 C 59 % 0 lf 1009,2 hPa 0,0 l/m 0 min 0 min 0 W/m 6,3 km/h (2 Bft) 97,87 %
07.05.2016 23:32 18,3 C 17,2 C 13,9 C 59 % 0 lf 1009,1 hPa 0,0 l/m 0 min 0 min 0 W/m 8,4 km/h (2 Bft) 97,83 %
07.05.2016 23:34 18,2 C 17,2 C 13,9 C 59 % 0 lf 1009,1 hPa 0,0 l/m 0 min 0 min 0 W/m 8,4 km/h (2 Bft) 95,74 %
07.05.2016 23:36 18,2 C 17,2 C 13,9 C 59 % 0 lf 1009,1 hPa 0,0 l/m 0 min 0 min 0 W/m 8,4 km/h (2 Bft) 95,74 %
07.05.2016 23:38 18,2 C 17,8 C 13,9 C 59 % 0 lf 1009,2 hPa 0,0 l/m 0 min 0 min 0 W/m 8,4 km/h (2 Bft) 97,87 %
07.05.2016 23:40 18,1 C 17,8 C 13,9 C 59 % 0 lf 1009,1 hPa 0,0 l/m 0 min 0 min 0 W/m 8,4 km/h (2 Bft) 95,74 %
07.05.2016 23:42 18,1 C 17,8 C 13,9 C 59 % 0 lf 1009,2 hPa 0,0 l/m 0 min 0 min 0 W/m 10,5 km/h (2 Bft) 93,62 %
07.05.2016 23:44 18,1 C 17,8 C 13,9 C 58 % 0 lf 1009,2 hPa 0,0 l/m 0 min 0 min 0 W/m 8,4 km/h (2 Bft) 95,65 %
07.05.2016 23:46 18,0 C 17,8 C 13,9 C 58 % 0 lf 1009,2 hPa 0,0 l/m 0 min 0 min 0 W/m 8,4 km/h (2 Bft) 97,87 %
07.05.2016 23:48 18,0 C 17,8 C 13,9 C 58 % 0 lf 1009,2 hPa 0,0 l/m 0 min 0 min 0 W/m 10,5 km/h (2 Bft) 95,74 %
07.05.2016 23:50 17,9 C 17,8 C 14,4 C 58 % 0 lf 1009,3 hPa 0,0 l/m 0 min 0 min 0 W/m 10,5 km/h (2 Bft) 97,87 %
07.05.2016 23:52 17,9 C 18,3 C 14,4 C 58 % 0 lf 1009,3 hPa 0,0 l/m 0 min 0 min 0 W/m 8,4 km/h (2 Bft) 97,87 %
07.05.2016 23:54 17,9 C 18,3 C 14,4 C 58 % 0 lf 1009,3 hPa 0,0 l/m 0 min 0 min 0 W/m 8,4 km/h (2 Bft) 95,74 %
07.05.2016 23:56 17,9 C 18,3 C 14,4 C 58 % 0 lf 1009,3 hPa 0,0 l/m 0 min 0 min 0 W/m 14,6 km/h (3 Bft) 95,65 %
07.05.2016 23:58 17,8 C 17,8 C 14,4 C 58 % 0 lf 1009,3 hPa 0,0 l/m 0 min 0 min 0 W/m 10,5 km/h (2 Bft) 97,87 %
_ Min-Zeit 05:58 04:32 04:44 13:42 00:00 18:26 - - - - 02:54 00:02
Minimum _ 11,3 C 11,1 C 8,9 C 34 % 0 lf 1007,9 hPa - - - - 2,1 km/h (1 Bft) 20,00 %
_ Max-Zeit 15:16 15:12 12:30 06:12 00:00 00:10 00:00 06:18 00:00 12:48 15:20 00:08
Maximum _ 27,9 C 34,4 C 31,7 C 80 % 0 lf 1011,1 hPa 0,0 l/m 2 min 0 min 897 W/m 39,7 km/h
S-SW (6 Bft)
100,00 %
Durchschnitt _ 20,2 C 21,8 C 18,6 C 56 % 0 lf 1009,8 hPa #0,0 l/m #13:26 h #0 min. 497 W/m 13,7 km/h (3 Bft) 95,94 %
© 2016 W. Hausmann